MENDUMS POND: From 07/30/2020 00:00 to 09/30/2020 00:00

Date LAKE ELEVATION [FT] PRECIPITATION INCREMENT [IN] WATER TEMPERATURE [F] PRECIPITATION TOTAL [IN] AIR TEMPERATURE [F] RESERVOIR RELEASE [CFS]
09/28/2020 16:00 223.71 0.00 63.3 -- 79.7 0.0
09/28/2020 15:00 223.69 0.00 63.2 -- 77.4 0.0
09/28/2020 14:00 717.94 -- 63.3 -- 75.9 10085.5
09/28/2020 13:00 223.69 0.00 63.3 -- 76.3 0.0
09/28/2020 12:00 223.70 0.00 63.3 -- 73.9 0.0
09/28/2020 11:00 223.70 0.00 63.2 -- 73.0 0.0
09/28/2020 10:00 223.70 0.00 63.3 -- 67.1 0.0
09/28/2020 09:00 223.70 0.00 63.3 -- 66.7 0.0
09/28/2020 08:00 223.70 0.00 63.3 -- 66.1 0.0
09/28/2020 07:00 1101.05 0.00 63.2 -- 66.0 0.0
09/28/2020 06:00 223.70 0.00 63.3 -- 65.9 0.0
09/28/2020 05:00 223.70 0.31 63.2 -- 65.1 0.0
09/28/2020 04:00 223.67 0.00 63.2 -- 64.4 0.0
09/28/2020 03:00 223.68 0.00 63.3 -- 63.6 0.0
09/28/2020 02:00 223.67 0.00 63.3 -- 63.4 0.0
09/28/2020 01:00 223.68 0.00 63.6 -- 63.6 0.0
09/28/2020 00:00 223.67 0.00 63.2 -- 64.1 0.0
09/27/2020 23:00 223.68 0.00 63.3 -- 64.7 0.0
09/27/2020 22:00 223.67 0.00 63.2 -- 64.1 0.0
09/27/2020 21:00 223.68 0.00 63.4 -- 65.8 0.0
09/27/2020 20:00 223.67 0.00 63.3 -- 68.1 0.0
09/27/2020 19:00 223.68 0.00 63.2 -- 72.1 0.0
09/27/2020 18:00 223.67 0.00 63.1 -- 75.9 0.0
09/27/2020 17:00 223.67 0.00 63.2 -- 76.0 0.0
09/27/2020 16:00 223.68 0.00 63.4 -- 74.7 0.0
09/27/2020 15:00 223.67 0.00 63.4 -- 72.8 0.0
09/27/2020 14:00 223.68 0.00 63.3 -- 74.2 0.0
09/27/2020 13:00 223.68 0.00 63.3 -- 72.4 0.0
09/27/2020 12:00 223.68 0.00 63.3 -- 69.3 0.0
09/27/2020 11:00 223.68 0.00 63.4 -- 65.4 0.0
09/27/2020 10:00 223.68 0.00 63.4 -- 64.4 0.0
09/27/2020 09:00 223.67 0.00 63.5 -- 60.6 0.0
09/27/2020 08:00 223.67 0.00 63.7 -- 58.4 0.0
09/27/2020 07:00 223.68 0.00 63.6 -- 59.3 0.0
09/27/2020 06:00 223.68 0.00 63.4 -- 59.5 0.0
09/27/2020 05:00 223.68 0.00 63.2 -- 59.0 0.0
09/27/2020 04:00 223.68 0.00 63.3 -- 54.5 0.0
09/27/2020 03:00 223.68 0.00 63.8 -- 55.0 0.0
09/27/2020 02:00 223.68 0.00 63.5 -- 55.3 0.0
09/27/2020 01:00 223.68 0.00 63.4 -- 55.6 0.0
09/27/2020 00:00 223.68 0.00 63.4 0.00 56.8 0.0
09/26/2020 23:00 223.68 0.00 63.5 -- 58.3 0.0
09/26/2020 22:00 223.68 0.00 63.5 -- 59.2 0.0
09/26/2020 21:00 223.68 0.00 63.5 -- 61.5 0.0
09/26/2020 20:00 223.68 0.00 63.4 -- 65.9 0.0
09/26/2020 19:00 223.67 0.00 63.3 -- 69.2 0.0
09/26/2020 18:00 223.68 0.00 63.4 -- 74.3 0.0
09/26/2020 17:00 223.68 0.00 63.2 -- 73.4 0.0
09/26/2020 16:00 223.69 0.00 63.6 -- 73.3 0.0
09/26/2020 15:00 223.68 0.00 63.5 -- 72.9 0.0
09/26/2020 14:00 223.68 0.00 63.4 -- 69.7 0.0
09/26/2020 13:00 223.68 0.00 63.3 -- 66.4 0.0
09/26/2020 12:00 223.68 0.00 63.3 -- 59.6 0.0
09/26/2020 11:00 223.68 0.00 63.2 -- 56.3 0.0
09/26/2020 10:00 223.68 0.00 63.4 -- 52.4 0.0
09/26/2020 09:00 223.68 0.00 63.4 -- 52.1 0.0
09/26/2020 08:00 223.68 0.00 63.4 -- 51.3 0.0
09/26/2020 07:00 223.68 0.00 63.4 -- 52.7 0.0
09/26/2020 06:00 223.68 0.00 63.3 -- 53.6 0.0
09/26/2020 05:00 223.68 0.00 63.3 -- 54.5 0.0
09/26/2020 04:00 223.68 0.00 63.3 -- 54.8 0.0
09/26/2020 03:00 223.68 0.00 63.2 -- 54.7 0.0
09/26/2020 02:00 223.68 0.00 63.5 -- 54.6 0.0
09/26/2020 01:00 223.69 0.00 63.5 -- 55.5 0.0
09/26/2020 00:00 223.68 0.00 63.2 0.00 53.2 0.0
09/25/2020 23:00 223.68 0.00 63.4 -- 54.6 0.0
09/25/2020 22:00 223.68 0.00 63.4 -- 56.6 0.0
09/25/2020 21:00 223.68 0.00 63.3 -- 59.3 0.0
09/25/2020 20:00 223.69 0.00 63.2 -- 61.5 0.0
09/25/2020 19:00 223.69 0.00 63.4 -- 65.0 0.0
09/25/2020 18:00 223.69 0.00 63.5 -- 69.7 0.0
09/25/2020 17:00 223.68 0.00 63.4 -- 72.1 0.0
09/25/2020 16:00 223.68 0.00 63.8 -- 74.5 0.0
09/25/2020 15:00 223.68 0.00 63.8 -- 73.4 0.0
09/25/2020 14:00 223.68 0.00 63.9 -- 73.4 0.0
09/25/2020 13:00 223.69 0.00 63.6 -- 70.8 0.0
09/25/2020 12:00 223.68 0.00 63.4 -- 67.8 0.0
09/25/2020 11:00 223.68 0.00 64.0 -- 64.7 0.0
09/25/2020 10:00 223.70 0.00 64.0 -- 61.2 0.0
09/25/2020 09:00 223.69 0.00 63.9 -- 54.1 0.0
09/25/2020 08:00 223.69 0.00 63.7 -- 50.6 0.0
09/25/2020 07:00 223.69 0.00 63.5 -- 51.0 0.0
09/25/2020 06:00 223.69 0.00 63.4 -- 52.1 0.0
09/25/2020 05:00 223.69 0.00 63.8 -- 53.2 0.0
09/25/2020 04:00 223.69 0.00 63.9 -- 54.9 0.0
09/25/2020 03:00 223.69 0.00 63.6 -- 55.8 0.0
09/25/2020 02:00 223.69 0.00 63.5 -- 58.0 0.0
09/25/2020 01:00 223.69 0.00 63.4 -- 60.7 0.0
09/25/2020 00:00 223.69 0.00 63.6 0.00 61.8 0.0
09/24/2020 23:00 223.69 0.00 63.6 -- 62.4 0.0
09/24/2020 22:00 223.69 0.00 63.6 -- 63.3 0.0
09/24/2020 21:00 223.69 0.00 63.6 -- 64.5 0.0
09/24/2020 20:00 223.69 0.00 63.5 -- 68.9 0.0
09/24/2020 19:00 223.69 0.00 63.5 -- 72.7 0.0
09/24/2020 18:00 223.70 0.00 63.6 -- 77.9 0.0
09/24/2020 17:00 223.70 0.00 63.5 -- 77.7 0.0
09/24/2020 16:00 223.69 0.00 63.4 -- 78.3 0.0
09/24/2020 15:00 223.69 0.00 63.7 -- 78.6 0.0
09/24/2020 14:00 223.70 0.00 63.6 -- 78.2 0.0
09/24/2020 13:00 223.69 0.00 63.6 -- 75.5 0.0
09/24/2020 12:00 223.69 0.00 63.5 -- 73.2 0.0
09/24/2020 11:00 223.69 0.00 63.5 -- 66.9 0.0
09/24/2020 10:00 223.70 0.00 63.5 -- 61.4 0.0
09/24/2020 09:00 223.69 0.00 63.5 -- 56.2 0.0
09/24/2020 08:00 223.70 0.00 63.6 -- 49.7 0.0
09/24/2020 07:00 223.70 0.00 63.5 -- 50.6 0.0
09/24/2020 06:00 223.70 0.00 63.5 -- 51.2 0.0
09/24/2020 05:00 223.69 0.00 63.6 -- 52.8 0.0
09/24/2020 04:00 223.70 0.00 63.5 -- 53.5 0.0
09/24/2020 03:00 223.69 0.00 63.5 -- 53.6 0.0
09/24/2020 02:00 223.70 0.00 63.5 -- 54.9 0.0
09/24/2020 01:00 223.69 0.00 63.5 -- 53.3 0.0
09/24/2020 00:00 223.69 0.00 63.7 0.00 53.9 0.0
09/23/2020 23:00 223.70 0.00 63.6 -- 55.3 0.0
09/23/2020 22:00 223.70 0.00 63.5 -- 58.1 0.0
09/23/2020 21:00 223.70 0.00 63.5 -- 62.4 0.0
09/23/2020 20:00 223.70 0.00 63.6 -- 69.6 0.0
09/23/2020 19:00 223.71 0.00 63.5 -- 71.8 0.0
09/23/2020 18:00 223.70 0.00 63.6 -- 74.4 0.0
09/23/2020 17:00 223.71 0.00 63.5 -- 74.6 0.0
09/23/2020 16:00 223.70 0.00 63.5 -- 77.2 0.0
09/23/2020 15:00 223.73 0.00 63.5 -- 76.1 0.0
09/23/2020 14:00 223.72 0.00 63.5 -- 75.0 0.0
09/23/2020 13:00 223.68 0.00 63.4 -- 72.3 0.0
09/23/2020 12:00 223.70 0.00 63.4 -- 68.9 0.0
09/23/2020 11:00 223.70 0.00 63.4 -- 64.8 0.0
09/23/2020 10:00 223.71 0.00 63.4 -- 59.8 0.0
09/23/2020 09:00 223.70 0.00 63.5 -- 56.2 0.0
09/23/2020 08:00 223.70 0.00 63.5 -- 54.6 0.0
09/23/2020 07:00 223.71 0.00 63.6 -- 54.9 0.0
09/23/2020 06:00 223.71 0.00 63.7 -- 54.7 0.0
09/23/2020 05:00 223.71 0.00 63.7 -- 54.8 0.0
09/23/2020 04:00 223.72 0.00 63.7 -- 55.4 0.0
09/23/2020 03:00 223.70 0.00 63.8 -- 55.2 0.0
09/23/2020 02:00 223.72 0.00 63.9 -- 56.5 0.0
09/23/2020 01:00 223.71 0.00 63.9 -- 57.8 0.0
09/23/2020 00:00 223.72 0.00 64.0 0.00 58.8 0.0
09/22/2020 23:00 223.71 0.00 64.1 -- 59.3 0.0
09/22/2020 22:00 223.71 0.00 64.1 -- 59.5 0.0
09/22/2020 21:00 223.72 0.00 64.2 -- 59.9 0.0
09/22/2020 20:00 223.72 0.00 64.3 -- 61.3 0.0
09/22/2020 19:00 223.72 0.00 64.3 -- 63.2 0.0
09/22/2020 18:00 223.72 0.00 64.4 -- 64.7 0.0
09/22/2020 17:00 223.73 0.00 64.5 -- 65.1 0.0
09/22/2020 16:00 223.71 0.00 64.4 -- 65.1 0.0
09/22/2020 15:00 223.72 0.00 64.4 -- 64.0 0.0
09/22/2020 14:00 223.73 0.00 64.3 -- 63.2 0.0
09/22/2020 13:00 223.73 0.00 64.3 -- 60.8 0.0
09/22/2020 12:00 223.70 0.00 64.2 -- 59.3 0.0
09/22/2020 11:00 223.71 0.00 64.2 -- 56.4 0.0
09/22/2020 10:00 223.73 0.00 64.2 -- 50.9 0.0
09/22/2020 09:00 223.73 0.00 64.2 -- 38.4 0.0
09/22/2020 08:00 223.72 0.00 64.4 -- 34.4 0.0
09/22/2020 07:00 223.72 0.00 64.4 -- 34.1 0.0
09/22/2020 06:00 223.72 0.00 64.5 -- 33.8 0.0
09/22/2020 05:00 223.72 0.00 64.5 -- 34.0 0.0
09/22/2020 04:00 223.73 0.00 64.5 -- 34.3 0.0
09/22/2020 03:00 223.73 0.00 64.5 -- 34.8 0.0
09/22/2020 02:00 223.72 0.00 64.6 -- 35.3 0.0
09/22/2020 01:00 223.72 0.00 64.8 -- 36.4 0.0
09/22/2020 00:00 223.73 0.00 64.6 0.00 37.3 0.0
09/21/2020 23:00 223.73 0.00 64.6 -- 38.9 0.0
09/21/2020 22:00 223.73 0.00 65.2 -- 40.9 0.0
09/21/2020 21:00 223.73 0.00 65.1 -- 44.1 0.0
09/21/2020 20:00 223.73 0.00 65.2 -- 48.9 0.0
09/21/2020 19:00 223.73 0.00 65.2 -- 56.3 0.0
09/21/2020 18:00 223.73 0.00 65.2 -- 60.9 0.0
09/21/2020 17:00 223.73 0.00 65.3 -- 62.8 0.0
09/21/2020 16:00 223.73 0.00 65.3 -- 62.5 0.0
09/21/2020 15:00 223.73 0.00 65.2 -- 61.1 0.0
09/21/2020 14:00 223.74 0.00 65.2 -- 61.8 0.0
09/21/2020 13:00 223.73 0.00 65.3 -- 59.5 0.0
09/21/2020 12:00 223.74 0.00 65.2 -- 57.1 0.0
09/21/2020 11:00 223.73 0.00 65.3 -- 53.0 0.0
09/21/2020 10:00 223.73 0.00 65.3 -- 49.0 0.0
09/21/2020 09:00 223.74 0.00 65.3 -- 38.5 0.0
09/21/2020 08:00 223.74 0.00 65.4 -- 34.0 0.0
09/21/2020 07:00 223.74 0.00 65.6 -- 33.0 0.0
09/21/2020 06:00 223.74 0.00 65.6 -- 32.8 0.0
09/21/2020 05:00 223.74 0.00 65.6 -- 33.2 0.0
09/21/2020 04:00 223.74 0.00 65.6 -- 33.7 0.0
09/21/2020 03:00 223.74 0.00 66.0 -- 34.4 0.0
09/21/2020 02:00 223.74 0.00 66.1 -- 35.3 0.0
09/21/2020 01:00 223.74 0.00 66.1 -- 36.3 0.0
09/21/2020 00:00 223.74 0.00 66.0 0.00 37.6 0.0
09/20/2020 23:00 223.74 0.00 66.0 -- 39.3 0.0
09/20/2020 22:00 223.74 0.00 66.0 -- 41.5 0.0
09/20/2020 21:00 223.74 0.00 66.2 -- 44.9 0.0
09/20/2020 20:00 223.74 0.00 66.1 -- 50.4 0.0
09/20/2020 19:00 223.75 0.00 66.1 -- 55.8 0.0
09/20/2020 18:00 223.75 0.00 66.0 -- 60.4 0.0
09/20/2020 17:00 223.75 0.00 66.1 -- 60.0 0.0
09/20/2020 16:00 223.76 0.00 66.0 -- 59.6 0.0
09/20/2020 15:00 223.74 0.00 66.0 -- 57.7 0.0
09/20/2020 14:00 223.75 0.00 65.9 -- 58.5 0.0
09/20/2020 13:00 223.76 0.00 66.0 -- 56.2 0.0
09/20/2020 12:00 223.74 0.00 66.0 -- 55.2 0.0
09/20/2020 11:00 223.76 0.00 66.1 -- 53.0 0.0
09/20/2020 10:00 223.75 0.00 66.1 -- 49.1 0.0
09/20/2020 09:00 223.75 0.00 66.2 -- 35.6 0.0
09/20/2020 08:00 223.75 0.00 66.3 -- 32.4 0.0
09/20/2020 07:00 223.76 0.00 66.4 -- 32.3 0.0
09/20/2020 06:00 223.76 0.00 66.6 -- 32.7 0.0
09/20/2020 05:00 223.76 0.00 66.6 -- 33.3 0.0
09/20/2020 04:00 223.76 0.00 66.7 -- 34.4 0.0
09/20/2020 03:00 223.76 0.00 66.7 -- 35.7 0.0
09/20/2020 02:00 223.76 0.00 66.8 -- 37.2 0.0
09/20/2020 01:00 223.76 0.00 66.8 -- 38.0 0.0
09/20/2020 00:00 223.76 0.00 66.8 0.00 38.3 0.0
09/19/2020 23:00 223.76 0.00 66.8 -- 38.6 0.0
09/19/2020 22:00 223.76 0.00 66.8 -- 38.9 0.0
09/19/2020 21:00 223.76 0.00 66.8 -- 39.2 0.0
09/19/2020 20:00 223.76 0.00 66.8 -- 39.5 0.0
09/19/2020 19:00 223.76 0.00 66.8 -- 39.8 0.0
09/19/2020 18:00 223.76 0.00 66.8 -- 40.1 0.0
09/19/2020 17:00 223.77 0.00 66.8 -- 40.4 0.0
09/19/2020 16:00 223.77 0.00 66.8 -- 40.6 0.0
09/19/2020 15:00 223.77 0.00 66.8 -- 40.9 0.0
09/19/2020 14:00 223.77 0.00 66.8 -- 41.2 0.0
09/19/2020 13:00 223.77 0.00 66.8 -- 41.5 0.0
09/19/2020 12:00 223.77 0.00 66.8 -- 41.8 0.0
09/19/2020 11:00 223.77 0.00 66.8 -- 42.1 0.0
09/19/2020 10:00 223.77 0.00 66.8 -- 42.4 0.0
09/19/2020 09:00 223.77 0.00 66.8 -- 39.2 0.0
09/19/2020 08:00 223.77 0.00 67.0 -- 34.9 0.0
09/19/2020 07:00 223.78 0.00 67.1 -- 35.8 0.0
09/19/2020 06:00 223.77 0.00 67.2 -- 36.7 0.0
09/19/2020 05:00 223.77 0.00 67.3 -- 38.0 0.0
09/19/2020 04:00 223.78 0.00 67.4 -- 39.8 0.0
09/19/2020 03:00 223.78 0.00 67.5 -- 41.5 0.0
09/19/2020 02:00 223.78 0.00 67.5 -- 45.5 0.0
09/19/2020 01:00 223.78 0.00 67.5 -- 49.1 0.0
09/19/2020 00:00 223.78 0.00 67.9 0.00 50.3 0.0
09/18/2020 23:00 223.78 0.00 67.9 -- 52.7 0.0
09/18/2020 22:00 223.78 0.00 68.0 -- 55.2 0.0
09/18/2020 21:00 223.77 0.00 67.6 -- 58.1 0.0
09/18/2020 20:00 223.78 0.00 67.9 -- 61.2 0.0
09/18/2020 19:00 223.78 0.00 67.6 -- 65.0 0.0
09/18/2020 18:00 223.79 0.00 67.9 -- 66.6 0.0
09/18/2020 17:00 223.78 0.00 68.0 -- 67.1 0.0
09/18/2020 16:00 223.79 0.00 67.3 -- 63.3 0.0
09/18/2020 15:00 223.78 0.00 68.1 -- 59.1 0.0
09/18/2020 14:00 223.80 0.00 68.1 -- 58.1 0.0
09/18/2020 13:00 223.79 0.00 68.1 -- 57.1 0.0
09/18/2020 12:00 223.79 0.00 68.1 -- 55.3 0.0
09/18/2020 11:00 223.79 0.00 68.2 -- 55.7 0.0
09/18/2020 10:00 223.79 0.00 68.3 -- 54.5 0.0
09/18/2020 09:00 223.80 0.00 68.2 -- 53.9 0.0
09/18/2020 08:00 223.79 0.00 68.1 -- 54.1 0.0
09/18/2020 07:00 223.79 0.00 67.5 -- 56.0 0.0
09/18/2020 06:00 223.78 0.00 67.0 -- 56.9 0.0
09/18/2020 05:00 223.79 0.00 67.0 -- 57.7 0.0
09/18/2020 04:00 223.79 0.00 67.0 -- 58.0 0.0
09/18/2020 03:00 223.79 0.00 66.8 -- 58.1 0.0
09/18/2020 02:00 223.80 0.00 67.1 -- 58.6 0.0
09/18/2020 01:00 223.79 0.00 67.1 -- 61.1 0.0
09/18/2020 00:00 223.80 0.00 67.0 0.00 61.8 0.0
09/17/2020 23:00 223.80 0.00 67.0 -- 62.4 0.0
09/17/2020 22:00 223.80 0.00 67.1 -- 63.1 0.0
09/17/2020 21:00 223.79 0.00 67.0 -- 64.5 0.0
09/17/2020 20:00 223.80 0.00 67.2 -- 66.7 0.0
09/17/2020 19:00 223.80 0.00 67.3 -- 68.4 0.0
09/17/2020 18:00 223.80 0.00 67.1 -- 72.1 0.0
09/17/2020 17:00 223.80 0.00 67.3 -- 75.5 0.0
09/17/2020 16:00 223.80 0.00 67.0 -- 77.1 0.0
09/17/2020 15:00 223.80 0.00 67.2 -- 76.5 0.0
09/17/2020 14:00 223.80 0.00 67.1 -- 74.7 0.0
09/17/2020 13:00 223.80 0.00 66.6 -- 71.0 0.0
09/17/2020 12:00 223.80 0.00 67.3 -- 69.2 0.0
09/17/2020 11:00 223.80 0.00 67.2 -- 65.4 0.0
09/17/2020 10:00 223.80 0.00 67.3 -- 60.0 0.0
09/17/2020 09:00 223.80 0.00 67.3 -- 55.1 0.0
09/17/2020 08:00 223.80 0.00 67.4 -- 51.6 0.0
09/17/2020 07:00 223.80 0.00 67.4 -- 53.1 0.0
09/17/2020 06:00 223.80 0.00 67.4 -- 53.1 0.0
09/17/2020 05:00 223.80 0.00 67.2 -- 54.1 0.0
09/17/2020 04:00 223.80 0.00 66.9 -- 55.9 0.0
09/17/2020 03:00 223.80 0.00 66.9 -- 57.4 0.0
09/17/2020 02:00 223.80 0.00 67.0 -- 58.6 0.0
09/17/2020 01:00 223.80 0.00 67.0 -- 58.5 0.0
09/17/2020 00:00 223.81 0.00 66.9 0.00 60.3 0.0
09/16/2020 23:00 223.80 0.00 66.9 -- 62.5 0.0
09/16/2020 22:00 223.80 0.00 66.7 -- 62.7 0.0
09/16/2020 21:00 223.80 0.00 67.1 -- 64.4 0.0
09/16/2020 20:00 223.80 0.00 66.9 -- 66.5 0.0
09/16/2020 19:00 223.81 0.00 67.1 -- 69.6 0.0
09/16/2020 18:00 223.82 0.00 67.3 -- 72.0 0.0
09/16/2020 17:00 223.83 0.00 67.0 -- 73.0 0.0
09/16/2020 16:00 223.81 0.00 67.0 -- 73.0 0.0
09/16/2020 15:00 223.81 0.00 67.9 -- 72.5 0.0
09/16/2020 14:00 223.81 0.00 67.9 -- 69.5 0.0
09/16/2020 13:00 223.82 0.00 67.6 -- 68.2 0.0
09/16/2020 12:00 223.80 0.00 67.8 -- 61.4 0.0
09/16/2020 11:00 223.82 0.00 67.9 -- 60.2 0.0
09/16/2020 10:00 223.82 0.00 67.8 -- 52.4 0.0
09/16/2020 09:00 223.81 0.00 67.6 -- 42.9 0.0
09/16/2020 08:00 223.82 0.00 67.6 -- 40.0 0.0
09/16/2020 07:00 223.81 0.00 67.6 -- 40.9 0.0
09/16/2020 06:00 223.82 0.00 67.7 -- 41.3 0.0
09/16/2020 05:00 223.81 0.00 67.7 -- 41.5 0.0
09/16/2020 04:00 223.82 0.00 67.6 -- 42.0 0.0
09/16/2020 03:00 223.82 0.00 67.6 -- 42.4 0.0
09/16/2020 02:00 223.82 0.00 67.6 -- 42.8 0.0
09/16/2020 01:00 223.81 0.00 67.3 -- 43.8 0.0
09/16/2020 00:00 223.82 0.00 67.8 0.00 44.8 0.0
09/15/2020 23:00 223.82 0.00 68.1 -- 46.1 0.0
09/15/2020 22:00 223.82 0.00 67.8 -- 47.3 0.0
09/15/2020 21:00 223.82 0.00 66.7 -- 50.0 0.0
09/15/2020 20:00 223.82 0.00 67.4 -- 54.8 0.0
09/15/2020 19:00 223.83 0.00 67.0 -- 60.7 0.0
09/15/2020 18:00 223.83 0.00 67.0 -- 64.4 0.0
09/15/2020 17:00 223.83 0.00 67.8 -- 64.7 0.0
09/15/2020 16:00 223.83 0.00 67.0 -- 64.8 0.0
09/15/2020 15:00 223.82 0.00 67.6 -- 63.4 0.0
09/15/2020 14:00 223.83 0.00 66.9 -- 62.2 0.0
09/15/2020 13:00 223.83 0.00 67.1 -- 60.4 0.0
09/15/2020 12:00 223.83 0.00 67.7 -- 59.0 0.0
09/15/2020 11:00 223.83 0.00 67.0 -- 56.1 0.0
09/15/2020 10:00 223.83 0.00 66.9 -- 49.4 0.0
09/15/2020 09:00 223.83 0.00 66.9 -- 41.4 0.0
09/15/2020 08:00 223.83 0.00 66.7 -- 38.0 0.0
09/15/2020 07:00 223.83 0.00 66.8 -- 37.9 0.0
09/15/2020 06:00 223.83 0.00 66.7 -- 38.9 0.0
09/15/2020 05:00 223.83 0.00 66.6 -- 39.5 0.0
09/15/2020 04:00 223.83 0.00 66.5 -- 41.0 0.0
09/15/2020 03:00 223.83 0.00 66.6 -- 42.3 0.0
09/15/2020 02:00 223.83 0.00 66.4 -- 43.9 0.0
09/15/2020 01:00 223.84 0.00 66.6 -- 45.5 0.0
09/15/2020 00:00 223.84 0.00 66.5 0.00 48.3 0.0
09/14/2020 23:00 223.84 0.00 66.5 -- 53.9 0.0
09/14/2020 22:00 223.85 0.00 66.6 -- 55.9 0.0
09/14/2020 21:00 223.85 0.00 66.6 -- 58.0 0.0
09/14/2020 20:00 223.84 0.00 66.5 -- 60.6 0.0
09/14/2020 19:00 223.84 0.00 66.6 -- 64.0 0.0
09/14/2020 18:00 223.84 0.00 65.8 -- 68.6 0.0
09/14/2020 17:00 223.86 0.00 66.7 -- 69.9 0.0
09/14/2020 16:00 223.84 0.00 66.5 -- 71.0 0.0
09/14/2020 15:00 223.84 0.00 66.7 -- 72.5 0.0
09/14/2020 14:00 223.86 0.00 66.3 -- 70.2 0.0
09/14/2020 13:00 223.87 0.00 66.5 -- 69.3 0.0
09/14/2020 12:00 223.84 0.00 66.5 -- 68.6 0.0
09/14/2020 11:00 223.86 0.00 66.5 -- 68.2 0.0
09/14/2020 10:00 223.83 0.00 66.6 -- 67.0 0.0
09/14/2020 09:00 223.86 0.00 66.4 -- 64.6 0.0
09/14/2020 08:00 223.85 0.00 66.4 -- 61.1 0.0
09/14/2020 07:00 223.85 0.00 66.6 -- 58.9 0.0
09/14/2020 06:00 223.84 0.00 66.4 -- 59.7 0.0
09/14/2020 05:00 223.85 0.00 66.3 -- 59.8 0.0
09/14/2020 04:00 223.85 0.00 66.7 -- 60.3 0.0
09/14/2020 03:00 223.85 0.00 66.5 -- 60.7 0.0
09/14/2020 02:00 223.85 0.00 66.3 -- 62.8 0.0
09/14/2020 01:00 223.85 0.00 66.5 -- 64.5 0.0
09/14/2020 00:00 223.86 0.00 66.6 0.00 65.8 0.0
09/13/2020 23:00 223.85 0.00 66.8 -- 64.4 0.0
09/13/2020 22:00 223.85 0.00 66.4 -- 64.3 0.0
09/13/2020 21:00 223.86 0.00 65.8 -- 65.6 0.0
09/13/2020 20:00 223.86 0.00 67.1 -- 67.3 0.0
09/13/2020 19:00 223.85 0.00 66.5 -- 70.7 0.0
09/13/2020 18:00 223.86 0.00 66.2 -- 72.4 0.0
09/13/2020 17:00 223.85 0.00 66.9 -- 72.8 0.0
09/13/2020 16:00 223.86 0.00 66.2 -- 72.3 0.0
09/13/2020 15:00 223.87 0.00 66.8 -- 71.2 0.0
09/13/2020 14:00 223.86 0.00 66.4 -- 70.0 0.0
09/13/2020 13:00 223.86 0.00 66.5 -- 69.1 0.0
09/13/2020 12:00 223.86 0.00 66.5 -- 64.6 0.0
09/13/2020 11:00 223.86 0.00 66.4 -- 63.5 0.0
09/13/2020 10:00 223.86 0.00 66.5 -- 57.4 0.0
09/13/2020 09:00 223.86 0.00 66.5 -- 51.0 0.0
09/13/2020 08:00 223.85 0.00 66.6 -- 47.2 0.0
09/13/2020 07:00 223.86 0.00 66.5 -- 45.5 0.0
09/13/2020 06:00 223.86 0.00 66.4 -- 44.7 0.0
09/13/2020 05:00 223.86 0.00 66.5 -- 43.4 0.0
09/13/2020 04:00 223.87 0.00 66.5 -- 44.1 0.0
09/13/2020 03:00 223.86 0.00 66.7 -- 44.4 0.0
09/13/2020 02:00 223.86 0.00 66.5 -- 45.1 0.0
09/13/2020 01:00 223.86 0.00 66.3 -- 46.1 0.0
09/13/2020 00:00 223.87 0.00 66.6 0.00 47.6 0.0
09/12/2020 23:00 223.86 0.00 66.3 -- 49.1 0.0
09/12/2020 22:00 223.86 0.00 66.6 -- 51.3 0.0
09/12/2020 21:00 223.87 0.00 66.6 -- 53.9 0.0
09/12/2020 20:00 223.87 0.00 66.6 -- 59.4 0.0
09/12/2020 19:00 223.87 0.00 66.1 -- 63.1 0.0
09/12/2020 18:00 223.87 0.00 66.7 -- 67.4 0.0
09/12/2020 17:00 223.87 0.00 66.3 -- 67.3 0.0
09/12/2020 16:00 223.88 0.00 66.7 -- 69.5 0.0
09/12/2020 15:00 223.87 0.00 66.6 -- 67.8 0.0
09/12/2020 14:00 223.87 0.00 66.6 -- 67.5 0.0
09/12/2020 13:00 223.87 0.00 65.9 -- 67.5 0.0
09/12/2020 12:00 223.87 0.00 66.7 -- 64.5 0.0
09/12/2020 11:00 223.88 0.00 66.3 -- 59.3 0.0
09/12/2020 10:00 223.87 0.00 66.6 -- 56.2 0.0
09/12/2020 09:00 223.87 0.00 66.4 -- 48.5 0.0
09/12/2020 08:00 223.88 0.00 66.5 -- 44.1 0.0
09/12/2020 07:00 223.88 0.00 66.4 -- 44.8 0.0
09/12/2020 06:00 223.88 0.00 66.8 -- 45.5 0.0
09/12/2020 05:00 223.88 0.00 66.5 -- 45.3 0.0
09/12/2020 04:00 223.88 0.00 66.6 -- 45.8 0.0
09/12/2020 03:00 223.88 0.00 66.4 -- 46.5 0.0
09/12/2020 02:00 223.88 0.00 66.5 -- 48.1 0.0
09/12/2020 01:00 223.88 0.00 66.3 -- 49.5 0.0
09/12/2020 00:00 223.88 0.00 66.7 0.00 50.6 0.0
09/11/2020 23:00 223.88 0.00 66.9 -- 51.5 0.0
09/11/2020 22:00 223.88 0.00 66.5 -- 53.0 0.0
09/11/2020 21:00 223.88 0.00 66.3 -- 55.5 0.0
09/11/2020 20:00 223.88 0.00 66.2 -- 61.5 0.0
09/11/2020 19:00 223.89 0.00 66.7 -- 65.8 0.0
09/11/2020 18:00 223.89 0.00 66.8 -- 68.5 0.0
09/11/2020 17:00 223.88 0.00 65.8 -- 69.7 0.0
09/11/2020 16:00 223.88 0.00 66.5 -- 68.6 0.0
09/11/2020 15:00 223.89 0.00 66.2 -- 66.6 0.0
09/11/2020 14:00 223.88 0.00 66.2 -- 64.7 0.0
09/11/2020 13:00 223.89 0.00 66.2 -- 61.2 0.0
09/11/2020 12:00 223.88 0.00 66.3 -- 60.9 0.0
09/11/2020 11:00 223.88 0.00 66.2 -- 61.1 0.0
09/11/2020 10:00 223.89 0.00 66.3 -- 61.1 0.0
09/11/2020 09:00 223.90 0.00 66.0 -- 61.8 0.0
09/11/2020 08:00 223.89 0.00 66.4 -- 61.4 0.0
09/11/2020 07:00 223.89 0.00 66.2 -- 60.8 0.0
09/11/2020 06:00 223.90 0.00 66.3 -- 64.0 0.0
09/11/2020 05:00 223.90 0.00 66.2 -- 63.5 0.0
09/11/2020 04:00 223.90 0.00 66.0 -- 66.2 0.0
09/11/2020 03:00 223.90 0.00 66.5 -- 68.5 0.0
09/11/2020 02:00 223.90 0.00 66.1 -- 69.2 0.0
09/11/2020 01:00 223.90 0.00 66.5 -- 70.7 0.0
09/11/2020 00:00 223.90 0.00 66.1 0.00 71.0 0.0
09/10/2020 23:00 223.90 0.00 66.6 -- 71.2 0.0
09/10/2020 22:00 223.91 0.00 66.3 -- 71.7 0.0
09/10/2020 21:00 223.91 0.01 66.2 -- 72.0 0.0
09/10/2020 20:00 223.91 0.00 66.2 -- 73.2 0.0
09/10/2020 19:00 223.91 0.01 66.4 -- 74.0 0.0
09/10/2020 18:00 223.91 0.00 65.7 -- 76.9 0.0
09/10/2020 17:00 223.91 0.00 66.7 -- 76.3 0.0
09/10/2020 16:00 223.91 0.05 66.8 -- 75.7 0.0
09/10/2020 15:00 223.91 0.02 66.1 -- 77.4 0.0
09/10/2020 14:00 223.91 0.00 66.0 -- 79.9 0.0
09/10/2020 13:00 223.91 0.07 66.2 -- 76.0 0.0
09/10/2020 12:00 223.90 0.00 66.7 -- 75.2 0.0
09/10/2020 11:00 223.91 0.00 66.2 -- 71.9 0.0
09/10/2020 10:00 223.91 0.00 66.4 -- 69.7 0.0
09/10/2020 09:00 223.91 0.00 66.1 -- 63.3 0.0
09/10/2020 08:00 223.91 0.00 66.2 -- 61.4 0.0
09/10/2020 07:00 223.91 0.00 65.8 -- 61.3 0.0
09/10/2020 06:00 223.91 0.00 66.5 -- 61.6 0.0
09/10/2020 05:00 223.92 0.00 66.1 -- 62.4 0.0
09/10/2020 04:00 223.92 0.00 66.2 -- 63.4 0.0
09/10/2020 03:00 223.93 0.00 66.2 -- 63.5 0.0
09/10/2020 02:00 223.92 0.00 66.2 -- 63.7 0.0
09/10/2020 01:00 223.93 0.00 66.2 -- 63.9 0.0
09/10/2020 00:00 223.92 0.00 66.3 0.16 65.0 0.0
09/09/2020 23:00 223.93 0.00 65.9 -- 65.5 0.0
09/09/2020 22:00 223.93 0.00 66.3 -- 66.4 0.0
09/09/2020 21:00 223.93 0.00 66.1 -- 68.0 0.0
09/09/2020 20:00 223.93 0.00 66.3 -- 69.9 0.0
09/09/2020 19:00 223.94 0.00 66.1 -- 73.4 0.0
09/09/2020 18:00 223.94 0.00 66.3 -- 77.9 0.0
09/09/2020 17:00 223.94 0.00 65.6 -- 81.0 0.0
09/09/2020 16:00 223.94 0.00 66.5 -- 80.8 0.0
09/09/2020 15:00 223.94 0.00 66.8 -- 83.1 0.0
09/09/2020 14:00 223.94 0.00 65.7 -- 80.0 0.0
09/09/2020 13:00 223.94 0.00 65.9 -- 77.9 0.0
09/09/2020 12:00 223.95 0.00 65.9 -- 78.1 0.0
09/09/2020 11:00 223.94 0.00 65.6 -- 75.0 0.0
09/09/2020 10:00 223.95 0.00 66.4 -- 67.1 0.0
09/09/2020 09:00 223.95 0.00 65.7 -- 61.6 0.0
09/09/2020 08:00 223.95 0.00 65.9 -- 58.9 0.0
09/09/2020 07:00 223.95 0.00 66.0 -- 58.0 0.0
09/09/2020 06:00 223.95 0.00 66.0 -- 58.3 0.0
09/09/2020 05:00 223.95 0.00 66.0 -- 59.0 0.0
09/09/2020 04:00 223.95 0.00 65.9 -- 59.9 0.0
09/09/2020 03:00 223.95 0.00 65.9 -- 61.0 0.0
09/09/2020 02:00 223.95 0.00 65.8 -- 61.6 0.0
09/09/2020 01:00 223.94 0.00 66.0 -- 62.8 0.0
09/09/2020 00:00 223.95 0.00 66.1 0.00 64.0 0.0
09/08/2020 23:00 223.95 0.00 65.9 -- 66.1 0.0
09/08/2020 22:00 223.95 0.00 66.1 -- 68.9 0.0
09/08/2020 21:00 223.95 0.00 65.6 -- 71.8 0.0
09/08/2020 20:00 223.95 0.00 65.8 -- 75.3 0.0
09/08/2020 19:00 223.95 0.00 66.5 -- 78.8 0.0
09/08/2020 18:00 223.95 0.00 65.7 -- 86.1 0.0
09/08/2020 17:00 223.96 0.00 66.0 -- 85.5 0.0
09/08/2020 16:00 223.95 0.00 66.0 -- 85.6 0.0
09/08/2020 15:00 223.96 0.00 66.1 -- 84.5 0.0
09/08/2020 14:00 223.95 0.00 65.8 -- 82.1 0.0
09/08/2020 13:00 223.95 0.00 65.9 -- 78.8 0.0
09/08/2020 12:00 223.96 0.00 66.0 -- 74.1 0.0
09/08/2020 11:00 223.95 0.00 65.8 -- 70.5 0.0
09/08/2020 10:00 223.96 0.00 65.9 -- 65.0 0.0
09/08/2020 09:00 223.94 0.00 65.9 -- 61.8 0.0
09/08/2020 08:00 223.96 0.00 66.0 -- 59.7 0.0
09/08/2020 07:00 223.95 0.00 65.9 -- 58.7 0.0
09/08/2020 06:00 223.96 0.00 65.9 -- 57.3 0.0
09/08/2020 05:00 223.95 0.00 65.9 -- 56.3 0.0
09/08/2020 04:00 223.95 0.00 65.9 -- 57.0 0.0
09/08/2020 03:00 223.96 0.00 66.3 -- 57.9 0.0
09/08/2020 02:00 223.96 0.00 65.7 -- 58.9 0.0
09/08/2020 01:00 223.96 0.00 66.2 -- 60.3 0.0
09/08/2020 00:00 223.96 0.00 66.3 0.00 62.3 0.0
09/07/2020 23:00 223.96 0.00 65.3 -- 66.0 0.0
09/07/2020 22:00 223.96 0.00 66.2 -- 68.2 0.0
09/07/2020 21:00 223.96 0.00 65.5 -- 69.2 0.0
09/07/2020 20:00 223.96 0.00 66.1 -- 71.1 0.0
09/07/2020 19:00 223.97 0.00 66.6 -- 74.0 0.0
09/07/2020 18:00 223.96 0.00 65.8 -- 75.0 0.0
09/07/2020 17:00 223.96 0.00 66.6 -- 79.2 0.0
09/07/2020 16:00 223.95 0.00 64.3 -- 80.6 0.0
09/07/2020 15:00 223.98 0.00 66.6 -- 80.1 0.0
09/07/2020 14:00 223.96 0.00 66.5 -- 79.2 0.0
09/07/2020 13:00 223.96 0.00 64.9 -- 77.6 0.0
09/07/2020 12:00 223.96 0.00 65.9 -- 74.8 0.0
09/07/2020 11:00 223.96 0.00 65.4 -- 70.9 0.0
09/07/2020 10:00 223.96 0.00 65.5 -- 65.3 0.0
09/07/2020 09:00 223.96 0.00 65.5 -- 57.7 0.0
09/07/2020 08:00 223.97 0.00 65.5 -- 55.2 0.0
09/07/2020 07:00 223.96 0.00 65.5 -- 56.6 0.0
09/07/2020 06:00 223.97 0.00 65.4 -- 56.3 0.0
09/07/2020 05:00 223.96 0.00 65.6 -- 55.5 0.0
09/07/2020 04:00 223.97 0.00 65.5 -- 54.7 0.0
09/07/2020 03:00 223.97 0.00 65.7 -- 55.5 0.0
09/07/2020 02:00 223.97 0.00 65.4 -- 55.1 0.0
09/07/2020 01:00 223.97 0.00 65.3 -- 55.5 0.0
09/07/2020 00:00 223.97 0.00 65.6 0.00 57.0 0.0
09/06/2020 23:00 223.97 0.00 65.3 -- 58.7 0.0
09/06/2020 22:00 223.97 0.00 65.7 -- 61.2 0.0
09/06/2020 21:00 223.97 0.00 65.9 -- 65.0 0.0
09/06/2020 20:00 223.97 0.00 65.2 -- 69.2 0.0
09/06/2020 19:00 223.97 0.00 65.3 -- 77.6 0.0
09/06/2020 18:00 223.97 0.00 66.0 -- 78.8 0.0
09/06/2020 17:00 223.97 0.00 65.5 -- 77.3 0.0
09/06/2020 16:00 223.98 0.00 66.1 -- 77.4 0.0
09/06/2020 15:00 223.97 0.00 64.8 -- 76.4 0.0
09/06/2020 14:00 223.98 0.00 65.3 -- 75.2 0.0
09/06/2020 13:00 223.98 0.00 65.8 -- 75.7 0.0
09/06/2020 12:00 223.97 0.00 65.2 -- 72.3 0.0
09/06/2020 11:00 223.98 0.00 64.9 -- 69.8 0.0
09/06/2020 10:00 223.97 0.00 65.4 -- 64.0 0.0
09/06/2020 09:00 223.98 0.00 65.4 -- 57.5 0.0
09/06/2020 08:00 223.98 0.00 65.8 -- 56.3 0.0
09/06/2020 07:00 223.98 0.00 65.1 -- 55.9 0.0
09/06/2020 06:00 223.98 0.00 65.5 -- 55.5 0.0
09/06/2020 05:00 223.97 0.00 65.0 -- 55.8 0.0
09/06/2020 04:00 223.98 0.00 65.3 -- 57.1 0.0
09/06/2020 03:00 223.97 0.00 65.6 -- 56.4 0.0
09/06/2020 02:00 223.98 0.00 65.3 -- 57.2 0.0
09/06/2020 01:00 223.98 0.00 65.9 -- 57.0 0.0
09/06/2020 00:00 223.98 0.00 64.9 0.00 58.6 0.0
09/05/2020 23:00 223.98 0.00 65.4 -- 59.5 0.0
09/05/2020 22:00 223.97 0.00 64.9 -- 58.8 0.0
09/05/2020 21:00 223.98 0.00 65.4 -- 60.7 0.0
09/05/2020 20:00 223.98 0.00 65.9 -- 66.9 0.0
09/05/2020 19:00 223.98 0.00 64.9 -- 75.2 0.0
09/05/2020 18:00 223.97 0.00 65.5 -- 76.4 0.0
09/05/2020 17:00 223.98 0.00 66.0 -- 76.9 0.0
09/05/2020 16:00 223.98 0.00 65.2 -- 75.3 0.0
09/05/2020 15:00 223.99 0.00 66.1 -- 75.8 0.0
09/05/2020 14:00 223.99 0.00 65.6 -- 73.2 0.0
09/05/2020 13:00 223.99 0.00 65.2 -- 71.4 0.0
09/05/2020 12:00 223.98 0.00 65.7 -- 70.2 0.0
09/05/2020 11:00 223.99 0.00 65.3 -- 66.5 0.0
09/05/2020 10:00 223.98 0.00 65.0 -- 63.0 0.0
09/05/2020 09:00 223.99 0.00 65.2 -- 57.8 0.0
09/05/2020 08:00 223.99 0.00 64.9 -- 49.1 0.0
09/05/2020 07:00 224.00 0.00 65.4 -- 49.4 0.0
09/05/2020 06:00 224.00 0.00 65.5 -- 51.9 0.0
09/05/2020 05:00 223.99 0.00 64.6 -- 51.5 0.0
09/05/2020 04:00 223.99 0.00 65.4 -- 52.4 0.0
09/05/2020 03:00 223.99 0.00 64.7 -- 53.5 0.0
09/05/2020 02:00 224.00 0.00 65.6 -- 54.9 0.0
09/05/2020 01:00 224.00 0.00 65.3 -- 56.4 0.0
09/05/2020 00:00 224.00 0.00 65.1 0.00 59.2 0.0
09/04/2020 23:00 223.99 0.00 65.3 -- 58.0 0.0
09/04/2020 22:00 224.00 0.00 64.5 -- 60.1 0.0
09/04/2020 21:00 224.00 0.00 65.7 -- 68.2 0.0
09/04/2020 20:00 224.00 0.00 65.1 -- 72.0 0.0
09/04/2020 19:00 224.00 0.00 65.2 -- 78.8 0.0
09/04/2020 18:00 224.00 0.00 65.5 -- 79.7 0.0
09/04/2020 17:00 223.99 0.00 65.7 -- 80.8 0.0
09/04/2020 16:00 224.00 0.00 65.4 -- 80.8 0.0
09/04/2020 15:00 223.99 0.00 64.9 -- 81.7 0.0
09/04/2020 14:00 224.00 0.00 64.1 -- 80.3 0.0
09/04/2020 13:00 224.00 0.00 65.1 -- 80.9 0.0
09/04/2020 12:00 223.99 0.00 65.1 -- 77.6 0.0
09/04/2020 11:00 224.01 0.00 65.2 -- 74.7 0.0
09/04/2020 10:00 224.00 0.00 65.0 -- 68.5 0.0
09/04/2020 09:00 224.01 0.01 65.0 -- 58.3 0.0
09/04/2020 08:00 224.00 0.00 64.9 -- 55.1 0.0
09/04/2020 07:00 224.00 0.00 65.2 -- 55.2 0.0
09/04/2020 06:00 224.01 0.00 64.9 -- 56.3 0.0
09/04/2020 05:00 224.00 0.00 65.1 -- 57.5 0.0
09/04/2020 04:00 224.01 0.00 65.2 -- 57.8 0.0
09/04/2020 03:00 224.01 0.00 64.6 -- 58.4 0.0
09/04/2020 02:00 224.00 0.00 65.4 -- 59.0 0.0
09/04/2020 01:00 224.01 0.00 64.9 -- 59.6 0.0
09/04/2020 00:00 224.00 0.00 64.8 0.01 60.7 0.0
09/03/2020 23:00 224.01 0.00 65.2 -- 62.0 0.0
09/03/2020 22:00 224.01 0.00 65.2 -- 63.6 0.0
09/03/2020 21:00 224.00 0.00 64.6 -- 65.5 0.0
09/03/2020 20:00 224.01 0.00 65.6 -- 67.4 0.0
09/03/2020 19:00 224.01 0.00 64.9 -- 69.5 0.0
09/03/2020 18:00 224.01 0.00 65.1 -- 72.9 0.0
09/03/2020 17:00 224.00 0.00 64.9 -- 77.4 0.0
09/03/2020 16:00 224.01 0.00 65.3 -- 76.0 0.0
09/03/2020 15:00 224.01 0.00 64.9 -- 73.0 0.0
09/03/2020 14:00 224.01 0.00 64.7 -- 72.5 0.0
09/03/2020 13:00 224.01 0.00 65.0 -- 72.5 0.0
09/03/2020 12:00 224.01 0.00 65.0 -- 71.8 0.0
09/03/2020 11:00 224.01 0.00 64.9 -- 70.5 0.0
09/03/2020 10:00 224.01 0.00 64.9 -- 69.6 0.0
09/03/2020 09:00 224.01 0.00 65.1 -- 67.8 0.0
09/03/2020 08:00 224.01 0.00 65.1 -- 64.4 0.0
09/03/2020 07:00 224.01 0.00 65.0 -- 65.1 0.0
09/03/2020 06:00 224.01 0.00 64.9 -- 64.9 0.0
09/03/2020 05:00 224.01 0.00 64.8 -- 64.8 0.0
09/03/2020 04:00 224.01 0.00 65.0 -- 64.1 0.0
09/03/2020 03:00 224.00 0.01 65.3 -- 63.9 0.0
09/03/2020 02:00 224.01 0.00 65.3 -- 63.8 0.0
09/03/2020 01:00 224.01 0.00 64.8 -- 63.6 0.0
09/03/2020 00:00 224.00 0.00 64.2 0.01 63.6 0.0
09/02/2020 23:00 224.00 0.00 65.7 -- 63.3 0.0
09/02/2020 22:00 224.01 0.00 65.8 -- 63.3 0.0
09/02/2020 21:00 224.00 0.01 64.4 -- 63.3 0.0
09/02/2020 20:00 224.00 0.00 64.6 -- 63.3 0.0
09/02/2020 19:00 224.00 0.02 64.7 -- 63.8 0.0
09/02/2020 18:00 224.01 0.02 64.5 -- 64.8 0.0
09/02/2020 17:00 224.00 0.03 64.8 -- 66.0 0.0
09/02/2020 16:00 224.00 0.01 64.4 -- 67.5 0.0
09/02/2020 15:00 224.00 0.00 65.0 -- 69.6 0.0
09/02/2020 14:00 224.00 0.00 64.5 -- 68.3 0.0
09/02/2020 13:00 224.00 0.00 64.7 -- 67.5 0.0
09/02/2020 12:00 224.00 0.01 64.5 -- 64.5 0.0
09/02/2020 11:00 224.00 0.00 64.6 -- 62.0 0.0
09/02/2020 10:00 224.00 0.00 64.5 -- 61.1 0.0
09/02/2020 09:00 224.00 0.00 64.6 -- 60.8 0.0
09/02/2020 08:00 224.00 0.00 64.5 -- 59.1 0.0
09/02/2020 07:00 224.00 0.00 64.6 -- 57.5 0.0
09/02/2020 06:00 224.00 0.00 64.5 -- 56.4 0.0
09/02/2020 05:00 224.00 0.00 64.5 -- 56.1 0.0
09/02/2020 04:00 224.00 0.00 64.5 -- 56.7 0.0
09/02/2020 03:00 223.99 0.00 64.6 -- 57.5 0.0
09/02/2020 02:00 224.00 0.00 64.6 -- 58.4 0.0
09/02/2020 01:00 224.00 0.00 64.4 -- 58.5 0.0
09/02/2020 00:00 224.00 0.00 64.6 0.10 61.2 0.0
09/01/2020 23:00 224.00 0.00 64.2 -- 62.0 0.0
09/01/2020 22:00 224.00 0.00 64.4 -- 62.4 0.0
09/01/2020 21:00 224.01 0.00 64.7 -- 63.3 0.0
09/01/2020 20:00 224.00 0.00 64.3 -- 65.3 0.0
09/01/2020 19:00 224.00 0.00 64.5 -- 70.7 0.0
09/01/2020 18:00 224.00 0.00 64.6 -- 72.0 0.0
09/01/2020 17:00 224.01 0.00 64.4 -- 71.8 0.0
09/01/2020 16:00 224.00 0.00 64.7 -- 73.3 0.0
09/01/2020 15:00 224.01 0.00 63.7 -- 73.6 0.0
09/01/2020 14:00 224.00 0.00 65.0 -- 72.5 0.0
09/01/2020 13:00 224.01 0.00 64.0 -- 71.8 0.0
09/01/2020 12:00 224.01 0.00 64.3 -- 69.6 0.0
09/01/2020 11:00 224.00 0.00 64.4 -- 67.6 0.0
09/01/2020 10:00 224.01 0.00 64.5 -- 62.1 0.0
09/01/2020 09:00 224.00 0.00 64.3 -- 54.7 0.0
09/01/2020 08:00 224.01 0.00 64.2 -- 50.2 0.0
09/01/2020 07:00 224.01 0.00 64.3 -- 49.8 0.0
09/01/2020 06:00 224.01 0.00 64.2 -- 50.4 0.0
09/01/2020 05:00 224.01 0.00 64.7 -- 51.4 0.0
09/01/2020 04:00 224.01 0.00 64.3 -- 52.3 0.0
09/01/2020 03:00 224.01 0.00 63.6 -- 53.4 0.0
09/01/2020 02:00 224.01 0.00 64.5 -- 53.5 0.0
09/01/2020 01:00 224.01 0.00 64.3 -- 53.5 0.0
09/01/2020 00:00 224.01 0.00 64.2 0.00 54.5 0.0
08/31/2020 23:00 224.01 0.00 64.3 -- 55.9 0.0
08/31/2020 22:00 224.01 0.00 63.8 -- 57.9 0.0
08/31/2020 21:00 224.01 0.00 64.8 -- 61.3 0.0
08/31/2020 20:00 224.01 0.00 63.6 -- 66.3 0.0
08/31/2020 19:00 224.01 0.00 65.0 -- 69.8 0.0
08/31/2020 18:00 224.01 0.00 64.0 -- 72.3 0.0
08/31/2020 17:00 224.01 0.00 64.2 -- 75.1 0.0
08/31/2020 16:00 224.02 0.00 64.3 -- 74.1 0.0
08/31/2020 15:00 224.01 0.00 64.1 -- 73.0 0.0
08/31/2020 14:00 224.01 0.00 64.4 -- 74.1 0.0
08/31/2020 13:00 224.02 0.00 63.7 -- 73.6 0.0
08/31/2020 12:00 224.02 0.00 64.3 -- 69.0 0.0
08/31/2020 11:00 224.01 0.00 64.0 -- 67.5 0.0
08/31/2020 10:00 224.01 0.00 64.0 -- 63.8 0.0
08/31/2020 09:00 224.02 0.00 64.1 -- 54.8 0.0
08/31/2020 08:00 224.01 0.00 63.8 -- 52.6 0.0
08/31/2020 07:00 224.02 0.00 64.2 -- 49.4 0.0
08/31/2020 06:00 224.02 0.00 63.7 -- 50.5 0.0
08/31/2020 05:00 224.02 0.00 63.9 -- 50.2 0.0
08/31/2020 04:00 224.02 0.00 64.1 -- 50.8 0.0
08/31/2020 03:00 224.02 0.00 63.9 -- 51.5 0.0
08/31/2020 02:00 224.02 0.00 64.0 -- 50.0 0.0
08/31/2020 01:00 224.02 0.00 63.9 -- 52.3 0.0
08/31/2020 00:00 224.02 0.00 63.8 0.00 53.4 --
08/30/2020 23:00 224.02 0.00 63.8 -- 55.0 --
08/30/2020 22:00 224.03 0.00 63.8 -- 56.6 --
08/30/2020 21:00 224.03 0.00 63.9 -- 58.3 --
08/30/2020 20:00 224.04 0.00 63.9 -- 59.9 --
08/30/2020 19:00 224.04 0.00 63.9 -- 61.5 --
08/30/2020 18:00 224.05 0.00 63.9 -- 63.1 --
08/30/2020 17:00 224.05 0.00 64.0 -- 64.8 --
08/30/2020 16:00 224.06 0.00 64.0 -- 66.4 --
08/30/2020 15:00 224.06 0.00 64.0 -- 68.0 0.0
08/30/2020 14:00 223.97 0.00 64.2 -- 68.2 0.0
08/30/2020 13:00 224.05 0.00 64.1 -- 68.7 0.0
08/30/2020 12:00 224.04 0.00 64.0 -- 66.3 0.0
08/30/2020 11:00 224.07 0.00 64.0 -- 67.0 0.0
08/30/2020 10:00 224.03 0.00 63.7 -- 63.2 0.0
08/30/2020 09:00 224.04 0.00 63.7 -- 62.0 0.0
08/30/2020 08:00 224.04 0.00 63.7 -- 56.5 0.0
08/30/2020 07:00 224.04 0.00 63.9 -- 59.1 0.0
08/30/2020 06:00 224.04 0.00 63.4 -- 60.9 0.0
08/30/2020 05:00 224.05 0.00 63.5 -- 62.1 0.0
08/30/2020 04:00 224.04 0.01 64.0 -- 62.6 0.0
08/30/2020 03:00 224.05 0.00 63.6 -- 62.9 0.0
08/30/2020 02:00 224.03 0.00 63.7 -- 62.4 0.0
08/30/2020 01:00 224.05 0.00 63.6 -- 62.2 0.0
08/30/2020 00:00 224.02 0.00 63.8 0.01 62.8 0.0
08/29/2020 23:00 224.04 0.00 63.7 -- 62.3 0.0
08/29/2020 22:00 224.03 0.01 63.7 -- 62.2 0.0
08/29/2020 21:00 224.04 0.00 63.6 -- 62.3 0.0
08/29/2020 20:00 224.04 0.00 63.7 -- 62.5 0.0
08/29/2020 19:00 224.04 0.00 63.8 -- 63.4 0.0
08/29/2020 18:00 224.04 0.00 63.6 -- 63.3 0.0
08/29/2020 17:00 224.04 0.00 63.7 -- 62.0 0.0
08/29/2020 16:00 224.04 0.00 63.7 -- 62.0 0.0
08/29/2020 15:00 224.04 0.00 63.4 -- 61.8 0.0
08/29/2020 14:00 224.05 0.01 63.8 -- 61.5 0.0
08/29/2020 13:00 224.04 0.08 63.6 -- 62.8 0.0
08/29/2020 12:00 224.04 0.12 63.5 -- 64.0 0.0
08/29/2020 11:00 224.01 0.07 63.8 -- 63.3 0.0
08/29/2020 10:00 224.01 0.10 63.4 -- 62.8 0.0
08/29/2020 09:00 224.00 0.18 63.6 -- 61.4 0.0
08/29/2020 08:00 223.99 0.02 63.9 -- 62.5 0.0
08/29/2020 07:00 223.99 0.00 63.3 -- 62.4 0.0
08/29/2020 06:00 223.99 0.00 63.7 -- 59.9 0.0
08/29/2020 05:00 223.98 0.00 63.6 -- 58.3 0.0
08/29/2020 04:00 223.99 0.00 63.6 -- 57.8 0.0
08/29/2020 03:00 223.99 0.00 63.8 -- 57.4 0.0
08/29/2020 02:00 223.99 0.00 63.5 -- 57.1 0.0
08/29/2020 01:00 223.99 0.00 63.9 -- 58.2 0.0
08/29/2020 00:00 223.99 0.00 63.1 0.59 59.8 0.0
08/28/2020 23:00 223.99 0.00 63.2 -- 62.3 0.0
08/28/2020 22:00 223.99 0.00 63.8 -- 65.0 0.0
08/28/2020 21:00 224.00 0.00 63.7 -- 70.5 0.0
08/28/2020 20:00 223.99 0.00 62.9 -- 74.4 0.0
08/28/2020 19:00 223.99 0.00 63.9 -- 79.1 0.0
08/28/2020 18:00 223.99 0.00 63.8 -- 78.7 0.0
08/28/2020 17:00 223.99 0.00 63.6 -- 82.1 0.0
08/28/2020 16:00 223.99 0.00 63.8 -- 80.3 0.0
08/28/2020 15:00 224.00 0.00 62.8 -- 79.5 0.0
08/28/2020 14:00 224.00 0.00 64.2 -- 78.6 0.0
08/28/2020 13:00 223.99 0.00 63.3 -- 73.3 0.0
08/28/2020 12:00 224.00 0.00 63.4 -- 72.2 0.0
08/28/2020 11:00 224.00 0.00 63.5 -- 68.0 0.0
08/28/2020 10:00 224.00 0.00 63.5 -- 65.6 0.0
08/28/2020 09:00 224.00 0.00 63.5 -- 61.6 0.0
08/28/2020 08:00 224.00 0.00 63.4 -- 58.8 0.0
08/28/2020 07:00 224.00 0.00 63.2 -- 58.0 0.0
08/28/2020 06:00 224.00 0.00 63.6 -- 57.8 0.0
08/28/2020 05:00 224.00 0.00 63.4 -- 57.1 0.0
08/28/2020 04:00 224.00 0.00 63.4 -- 56.8 0.0
08/28/2020 03:00 224.00 0.00 63.3 -- 54.5 0.0
08/28/2020 02:00 224.00 0.00 63.6 -- 55.3 0.0
08/28/2020 01:00 224.00 0.00 63.3 -- 56.1 0.0
08/28/2020 00:00 224.00 0.00 63.7 0.00 58.0 0.0
08/27/2020 23:00 224.01 0.00 63.1 -- 58.4 0.0
08/27/2020 22:00 224.00 0.00 63.0 -- 60.1 0.0
08/27/2020 21:00 224.01 0.00 63.6 -- 60.0 0.0
08/27/2020 20:00 224.00 0.00 63.6 -- 61.6 0.0
08/27/2020 19:00 224.01 0.00 63.0 -- 62.8 0.0
08/27/2020 18:00 224.00 0.00 63.8 -- 63.4 0.0
08/27/2020 17:00 224.00 0.00 63.2 -- 63.4 0.0
08/27/2020 16:00 224.00 0.00 63.8 -- 62.3 0.0
08/27/2020 15:00 224.01 0.00 63.5 -- 60.4 0.0
08/27/2020 14:00 224.01 0.00 63.3 -- 60.8 0.0
08/27/2020 13:00 224.01 0.00 63.3 -- 62.7 0.0
08/27/2020 12:00 224.01 0.00 63.8 -- 62.3 0.0
08/27/2020 11:00 224.00 0.00 62.7 -- 60.6 0.0
08/27/2020 10:00 224.01 0.00 63.6 -- 57.6 0.0
08/27/2020 09:00 224.00 0.00 63.4 -- 55.0 0.0
08/27/2020 08:00 224.01 0.00 63.0 -- 53.3 0.0
08/27/2020 07:00 224.01 0.00 64.1 -- 52.1 0.0
08/27/2020 06:00 224.01 0.00 62.7 -- 52.9 0.0
08/27/2020 05:00 224.01 0.00 63.3 -- 54.8 0.0
08/27/2020 04:00 224.01 0.00 63.6 -- 55.4 0.0
08/27/2020 03:00 224.01 0.00 63.3 -- 54.4 0.0
08/27/2020 02:00 224.02 0.00 63.5 -- 53.8 0.0
08/27/2020 01:00 224.01 0.00 63.9 -- 54.8 0.0
08/27/2020 00:00 224.01 0.00 62.9 0.00 56.1 0.0
08/26/2020 23:00 224.02 0.00 63.3 -- 61.6 0.0
08/26/2020 22:00 224.02 0.00 62.7 -- 56.9 0.0
08/26/2020 21:00 224.02 0.00 63.5 -- 61.8 0.0
08/26/2020 20:00 224.02 0.00 63.6 -- 67.9 0.0
08/26/2020 19:00 224.02 0.00 62.9 -- 72.0 0.0
08/26/2020 18:00 224.02 0.00 63.1 -- 72.1 0.0
08/26/2020 17:00 224.04 0.00 62.7 -- 72.1 0.0
08/26/2020 16:00 224.00 0.00 63.2 -- 71.1 0.0
08/26/2020 15:00 224.00 0.00 62.9 -- 70.3 0.0
08/26/2020 14:00 224.06 0.00 64.0 -- 68.0 0.0
08/26/2020 13:00 224.04 0.00 62.5 -- 66.9 0.0
08/26/2020 12:00 224.01 0.00 63.2 -- 64.0 0.0
08/26/2020 11:00 224.02 0.00 63.1 -- 62.9 0.0
08/26/2020 10:00 224.03 0.00 63.6 -- 61.4 0.0
08/26/2020 09:00 224.04 0.00 63.0 -- 60.2 0.0
08/26/2020 08:00 224.04 0.00 62.9 -- 58.3 0.0
08/26/2020 07:00 224.04 0.00 63.9 -- 57.6 0.0
08/26/2020 06:00 224.04 0.00 62.6 -- 57.8 0.0
08/26/2020 05:00 224.05 0.00 62.5 -- 60.5 0.0
08/26/2020 04:00 224.04 0.00 62.9 -- 61.6 0.0
08/26/2020 03:00 224.05 0.00 62.9 -- 63.1 0.0
08/26/2020 02:00 224.05 0.00 62.8 -- 64.7 0.0
08/26/2020 01:00 224.04 0.00 63.2 -- 67.0 0.0
08/26/2020 00:00 224.07 0.00 63.2 0.00 68.0 0.0
08/25/2020 23:00 224.03 0.00 62.7 -- 69.9 0.0
08/25/2020 22:00 224.06 0.00 62.7 -- 71.6 0.0
08/25/2020 21:00 224.05 0.00 63.3 -- 70.4 0.0
08/25/2020 20:00 224.05 0.00 63.3 -- 71.2 0.0
08/25/2020 19:00 224.04 0.00 62.6 -- 71.2 0.0
08/25/2020 18:00 224.05 0.00 63.0 -- 76.5 0.0
08/25/2020 17:00 224.07 0.00 63.1 -- 86.5 0.0
08/25/2020 16:00 224.05 0.00 62.8 -- 87.5 0.0
08/25/2020 15:00 224.07 0.00 63.2 -- 87.7 0.0
08/25/2020 14:00 224.07 0.00 62.7 -- 86.0 0.0
08/25/2020 13:00 224.07 0.00 63.6 -- 82.4 0.0
08/25/2020 12:00 224.05 0.00 61.9 -- 82.3 0.0
08/25/2020 11:00 224.06 0.00 62.0 -- 77.8 0.0
08/25/2020 10:00 224.06 0.00 63.8 -- 73.7 0.0
08/25/2020 09:00 224.06 0.00 62.3 -- 70.2 0.0
08/25/2020 08:00 224.06 0.00 62.9 -- 66.1 0.0
08/25/2020 07:00 224.06 0.00 62.6 -- 65.7 0.0
08/25/2020 06:00 224.06 0.00 62.8 -- 66.2 0.0
08/25/2020 05:00 224.06 0.00 62.5 -- 66.2 0.0
08/25/2020 04:00 224.06 0.00 62.5 -- 66.6 0.0
08/25/2020 03:00 224.06 0.00 62.8 -- 66.0 0.0
08/25/2020 02:00 224.06 0.00 62.6 -- 66.5 0.0
08/25/2020 01:00 224.07 0.00 62.9 -- 67.8 0.0
08/25/2020 00:00 224.06 0.00 62.6 0.00 69.4 0.0
08/24/2020 23:00 224.06 0.00 62.8 -- 70.6 0.0
08/24/2020 22:00 224.06 0.00 62.9 -- 71.8 0.0
08/24/2020 21:00 224.07 0.00 61.6 -- 74.8 0.0
08/24/2020 20:00 224.06 0.00 63.3 -- 77.0 0.0
08/24/2020 19:00 224.07 0.00 62.6 -- 82.3 0.0
08/24/2020 18:00 224.06 0.00 62.9 -- 86.0 0.0
08/24/2020 17:00 224.07 0.00 64.3 -- 87.8 0.0
08/24/2020 16:00 224.06 0.00 62.4 -- 91.3 0.0
08/24/2020 15:00 224.07 0.00 62.8 -- 90.7 0.0
08/24/2020 14:00 224.07 0.00 62.0 -- 88.2 0.0
08/24/2020 13:00 224.07 0.00 62.8 -- 89.0 0.0
08/24/2020 12:00 224.07 0.00 62.2 -- 82.8 0.0
08/24/2020 11:00 224.07 0.00 62.6 -- 77.0 0.0
08/24/2020 10:00 224.07 0.00 62.2 -- 71.3 0.0
08/24/2020 09:00 224.07 0.00 62.6 -- 66.9 0.0
08/24/2020 08:00 224.07 0.00 62.6 -- 63.8 0.0
08/24/2020 07:00 224.07 0.00 62.3 -- 62.6 0.0
08/24/2020 06:00 224.06 0.00 62.6 -- 62.4 0.0
08/24/2020 05:00 224.07 0.00 62.4 -- 63.3 0.0
08/24/2020 04:00 224.06 0.00 62.5 -- 64.2 0.0
08/24/2020 03:00 224.07 0.00 62.3 -- 66.6 0.0
08/24/2020 02:00 224.07 0.00 62.7 -- 67.6 0.0
08/24/2020 01:00 224.07 0.01 62.5 -- 67.6 0.0
08/24/2020 00:00 224.07 0.00 62.5 0.01 67.1 0.0
08/23/2020 23:00 224.07 0.00 62.4 -- 66.7 0.0
08/23/2020 22:00 224.07 0.00 62.5 -- 67.3 0.0
08/23/2020 21:00 224.06 0.00 62.5 -- 68.3 0.0
08/23/2020 20:00 224.08 0.00 63.0 -- 69.1 0.0
08/23/2020 19:00 224.07 0.02 62.1 -- 69.4 0.0
08/23/2020 18:00 224.08 0.22 62.8 -- 69.1 0.0
08/23/2020 17:00 224.06 0.01 62.5 -- 70.6 0.0
08/23/2020 16:00 224.06 0.05 62.3 -- 72.2 0.0
08/23/2020 15:00 224.05 0.00 62.2 -- 88.5 0.0
08/23/2020 14:00 224.06 0.00 62.5 -- 86.0 0.0
08/23/2020 13:00 224.05 0.00 62.6 -- 83.2 0.0
08/23/2020 12:00 224.05 0.00 62.3 -- 81.2 0.0
08/23/2020 11:00 224.05 0.00 62.3 -- 74.0 0.0
08/23/2020 10:00 224.05 0.01 62.4 -- 68.8 0.0
08/23/2020 09:00 224.05 0.00 62.5 -- 61.2 0.0
08/23/2020 08:00 224.05 0.00 62.4 -- 57.6 0.0
08/23/2020 07:00 224.05 0.00 62.6 -- 56.8 0.0
08/23/2020 06:00 224.05 0.00 62.4 -- 57.5 0.0
08/23/2020 05:00 224.05 0.00 63.0 -- 58.2 0.0
08/23/2020 04:00 224.05 0.00 62.1 -- 59.2 0.0
08/23/2020 03:00 224.05 0.00 63.2 -- 60.2 0.0
08/23/2020 02:00 224.05 0.00 61.9 -- 61.5 0.0
08/23/2020 01:00 224.05 0.00 62.9 -- 62.7 0.0
08/23/2020 00:00 224.05 0.00 61.6 0.31 64.0 0.0
08/22/2020 23:00 224.05 0.00 62.5 -- 64.8 0.0
08/22/2020 22:00 224.06 0.00 61.8 -- 67.1 0.0
08/22/2020 21:00 224.05 0.00 62.3 -- 69.5 0.0
08/22/2020 20:00 224.06 0.00 62.3 -- 72.2 0.0
08/22/2020 19:00 224.05 0.01 62.6 -- 74.9 0.0
08/22/2020 18:00 224.07 0.00 62.4 -- 73.4 0.0
08/22/2020 17:00 224.06 0.00 61.5 -- 86.5 0.0
08/22/2020 16:00 224.05 0.00 62.2 -- 85.7 0.0
08/22/2020 15:00 224.05 0.00 62.3 -- 80.6 0.0
08/22/2020 14:00 224.05 0.00 62.3 -- 80.3 0.0
08/22/2020 13:00 224.05 0.00 62.1 -- 77.5 0.0
08/22/2020 12:00 224.06 0.00 62.7 -- 74.7 0.0
08/22/2020 11:00 224.06 0.00 61.8 -- 74.1 0.0
08/22/2020 10:00 224.06 0.00 61.6 -- 72.1 0.0
08/22/2020 09:00 224.06 0.00 62.2 -- 64.4 0.0
08/22/2020 08:00 224.06 0.00 62.3 -- 60.5 0.0
08/22/2020 07:00 224.06 0.00 62.0 -- 59.7 0.0
08/22/2020 06:00 224.06 0.00 62.1 -- 60.7 0.0
08/22/2020 05:00 224.06 0.00 62.2 -- 61.7 0.0
08/22/2020 04:00 224.06 0.00 62.1 -- 62.6 0.0
08/22/2020 03:00 224.06 0.00 61.9 -- 61.3 0.0
08/22/2020 02:00 224.06 0.00 62.0 -- 62.1 0.0
08/22/2020 01:00 224.06 0.00 62.2 -- 63.5 0.0
08/22/2020 00:00 224.06 0.00 61.6 0.01 66.3 0.0
08/21/2020 23:00 224.06 0.00 62.0 -- 68.8 0.0
08/21/2020 22:00 224.07 0.00 62.2 -- 71.7 0.0
08/21/2020 21:00 224.05 0.00 62.2 -- 69.9 0.0
08/21/2020 20:00 224.06 0.00 62.1 -- 75.1 0.0
08/21/2020 19:00 224.07 0.00 62.1 -- 81.0 0.0
08/21/2020 18:00 224.07 0.00 61.2 -- 87.0 0.0
08/21/2020 17:00 224.07 0.00 61.9 -- 88.5 0.0
08/21/2020 16:00 224.05 0.00 62.2 -- 89.0 0.0
08/21/2020 15:00 224.08 0.00 61.9 -- 87.7 0.0
08/21/2020 14:00 224.08 0.00 62.0 -- 85.6 0.0
08/21/2020 13:00 224.07 0.00 62.6 -- 82.9 0.0
08/21/2020 12:00 224.07 0.00 61.5 -- 79.2 0.0
08/21/2020 11:00 224.07 0.00 62.2 -- 74.8 0.0
08/21/2020 10:00 224.07 0.00 61.4 -- 68.9 0.0
08/21/2020 09:00 224.07 0.00 62.3 -- 59.7 0.0
08/21/2020 08:00 224.08 0.00 61.8 -- 52.2 0.0
08/21/2020 07:00 224.07 0.00 61.3 -- 51.8 0.0
08/21/2020 06:00 224.08 0.00 62.0 -- 52.4 0.0
08/21/2020 05:00 224.07 0.00 62.0 -- 52.5 0.0
08/21/2020 04:00 224.07 0.00 61.4 -- 52.8 0.0
08/21/2020 03:00 224.08 0.00 62.1 -- 53.2 0.0
08/21/2020 02:00 224.07 0.00 61.9 -- 53.9 0.0
08/21/2020 01:00 224.08 0.00 61.9 -- 54.8 0.0
08/21/2020 00:00 224.08 0.00 61.8 0.00 56.1 0.0
08/20/2020 23:00 224.08 0.00 61.8 -- 57.8 0.0
08/20/2020 22:00 224.08 0.00 62.7 -- 60.4 0.0
08/20/2020 21:00 224.08 0.00 60.9 -- 64.6 0.0
08/20/2020 20:00 224.08 0.00 62.5 -- 74.6 0.0
08/20/2020 19:00 224.08 0.00 61.6 -- 78.5 0.0
08/20/2020 18:00 224.08 0.00 61.9 -- 79.9 0.0
08/20/2020 17:00 224.07 0.00 61.7 -- 78.5 0.0
08/20/2020 16:00 224.09 0.00 61.6 -- 78.2 0.0
08/20/2020 15:00 224.09 0.00 61.1 -- 78.2 0.0
08/20/2020 14:00 224.09 0.01 61.7 -- 74.8 0.0
08/20/2020 13:00 224.08 0.00 61.6 -- 72.8 0.0
08/20/2020 12:00 224.10 0.00 61.8 -- 70.3 0.0
08/20/2020 11:00 224.09 0.00 61.4 -- 67.9 0.0
08/20/2020 10:00 224.09 0.00 62.0 -- 63.2 0.0
08/20/2020 09:00 224.09 0.00 61.6 -- 56.1 0.0
08/20/2020 08:00 224.09 0.00 61.7 -- 51.4 0.0
08/20/2020 07:00 224.09 0.00 61.6 -- 52.0 0.0
08/20/2020 06:00 224.09 0.00 62.3 -- 52.6 0.0
08/20/2020 05:00 224.09 0.00 61.1 -- 52.7 0.0
08/20/2020 04:00 224.09 0.00 62.0 -- 53.1 0.0
08/20/2020 03:00 224.09 0.00 61.7 -- 54.2 0.0
08/20/2020 02:00 224.09 0.00 61.5 -- 55.3 0.0
08/20/2020 01:00 224.09 0.00 62.2 -- 56.8 0.0
08/20/2020 00:00 224.09 0.00 61.6 0.01 57.2 0.0
08/19/2020 23:00 224.09 0.00 61.9 -- 58.9 0.0
08/19/2020 22:00 224.09 0.00 62.1 -- 59.2 0.0
08/19/2020 21:00 224.09 0.00 61.2 -- 62.0 0.0
08/19/2020 20:00 224.10 0.00 62.7 -- 64.9 0.0
08/19/2020 19:00 224.10 0.00 61.5 -- 67.0 0.0
08/19/2020 18:00 224.09 0.16 61.3 -- 64.5 0.0
08/19/2020 17:00 224.09 0.00 62.2 -- 71.8 0.0
08/19/2020 16:00 224.08 0.00 61.7 -- 80.6 0.0
08/19/2020 15:00 224.09 0.00 61.7 -- 78.8 0.0
08/19/2020 14:00 224.09 0.00 61.2 -- 79.8 0.0
08/19/2020 13:00 224.08 0.00 62.1 -- 78.2 0.0
08/19/2020 12:00 224.08 0.00 61.3 -- 73.7 0.0
08/19/2020 11:00 224.09 0.00 61.5 -- 72.2 0.0
08/19/2020 10:00 224.09 0.00 61.7 -- 67.8 0.0
08/19/2020 09:00 224.09 0.00 61.3 -- 62.5 0.0
08/19/2020 08:00 224.09 0.00 61.6 -- 56.5 0.0
08/19/2020 07:00 224.09 0.00 61.8 -- 53.8 0.0
08/19/2020 06:00 224.09 0.00 60.9 -- 54.6 0.0
08/19/2020 05:00 224.09 0.00 61.8 -- 58.2 0.0
08/19/2020 04:00 224.10 0.00 61.6 -- 55.8 0.0
08/19/2020 03:00 224.09 0.00 61.6 -- 56.9 0.0
08/19/2020 02:00 224.10 0.00 61.6 -- 57.7 0.0
08/19/2020 01:00 224.09 0.00 61.0 -- 60.2 0.0
08/19/2020 00:00 224.10 0.00 62.1 0.16 61.8 0.0
08/18/2020 23:00 224.10 0.00 61.3 -- 64.8 0.0
08/18/2020 22:00 224.10 0.00 62.4 -- 68.4 0.0
08/18/2020 21:00 224.11 0.00 61.3 -- 71.8 0.0
08/18/2020 20:00 224.11 0.00 61.0 -- 74.8 0.0
08/18/2020 19:00 224.11 0.00 61.7 -- 79.6 0.0
08/18/2020 18:00 224.11 0.00 61.0 -- 82.1 0.0
08/18/2020 17:00 224.12 0.00 61.1 -- 83.8 0.0
08/18/2020 16:00 224.11 0.00 61.9 -- 81.2 0.0
08/18/2020 15:00 224.12 0.00 61.3 -- 82.0 0.0
08/18/2020 14:00 224.12 0.00 61.7 -- 80.8 0.0
08/18/2020 13:00 224.11 0.00 61.0 -- 79.4 0.0
08/18/2020 12:00 224.12 0.00 61.1 -- 77.0 0.0
08/18/2020 11:00 224.13 0.00 61.7 -- 75.1 0.0
08/18/2020 10:00 224.12 0.00 61.5 -- 70.4 0.0
08/18/2020 09:00 224.12 0.00 61.2 -- 64.9 0.0
08/18/2020 08:00 224.12 0.00 61.4 -- 63.5 0.0
08/18/2020 07:00 224.13 0.00 61.3 -- 61.6 0.0
08/18/2020 06:00 224.13 0.00 61.5 -- 61.2 0.0
08/18/2020 05:00 224.13 0.00 61.5 -- 61.4 0.0
08/18/2020 04:00 224.14 0.00 61.2 -- 61.1 0.0
08/18/2020 03:00 224.13 0.00 61.6 -- 61.4 0.0
08/18/2020 02:00 224.14 0.00 61.5 -- 61.2 0.0
08/18/2020 01:00 224.14 0.00 61.2 -- 62.0 0.0
08/18/2020 00:00 224.14 0.00 61.8 0.00 62.2 0.0
08/17/2020 23:00 224.14 -- 61.5 -- 61.8 0.0
08/17/2020 22:00 224.14 0.00 62.0 -- 63.1 0.0
08/17/2020 21:00 224.14 0.00 61.3 -- 65.3 0.0
08/17/2020 20:00 224.14 0.00 61.4 -- 68.6 0.0
08/17/2020 19:00 224.15 0.00 61.7 -- 72.3 0.0
08/17/2020 18:00 224.15 0.00 61.9 -- 74.1 0.0
08/17/2020 17:00 224.16 0.00 61.6 -- 75.3 0.0
08/17/2020 16:00 224.15 0.00 60.5 -- 77.0 0.0
08/17/2020 15:00 224.15 0.00 60.8 -- 77.4 0.0
08/17/2020 14:00 224.15 0.00 61.6 -- 72.0 0.0
08/17/2020 13:00 224.15 0.00 61.2 -- 71.6 0.0
08/17/2020 12:00 224.16 0.00 60.8 -- 68.7 0.0
08/17/2020 11:00 224.16 0.00 60.9 -- 68.4 0.0
08/17/2020 10:00 224.16 0.00 61.1 -- 66.1 0.0
08/17/2020 09:00 224.16 0.00 60.8 -- 63.5 0.0
08/17/2020 08:00 224.16 0.00 61.1 -- 63.2 0.0
08/17/2020 07:00 224.16 0.00 61.0 -- 62.9 0.0
08/17/2020 06:00 224.16 0.00 61.0 -- 62.8 0.0
08/17/2020 05:00 224.16 0.00 60.9 -- 62.9 0.0
08/17/2020 04:00 224.17 0.00 61.0 -- 62.7 0.0
08/17/2020 03:00 224.16 0.00 60.9 -- 63.4 0.0
08/17/2020 02:00 224.17 0.00 60.8 -- 63.6 0.0
08/17/2020 01:00 224.16 0.00 61.1 -- 63.5 0.0
08/17/2020 00:00 224.17 0.00 61.1 -- 63.6 0.0
08/16/2020 23:00 224.16 0.00 60.8 -- 64.0 0.0
08/16/2020 22:00 224.17 0.00 61.1 -- 64.5 0.0
08/16/2020 21:00 224.17 0.00 61.2 -- 65.0 0.0
08/16/2020 20:00 224.17 0.00 60.6 -- 65.8 0.0
08/16/2020 19:00 224.17 0.00 61.2 -- 66.1 0.0
08/16/2020 18:00 224.17 0.00 61.0 -- 67.5 0.0
08/16/2020 17:00 224.17 0.00 61.2 -- 67.5 0.0
08/16/2020 16:00 224.17 0.00 60.9 -- 68.1 0.0
08/16/2020 15:00 224.17 0.00 61.0 -- 68.8 0.0
08/16/2020 14:00 224.18 0.00 60.9 -- 69.3 0.0
08/16/2020 13:00 224.17 0.00 60.9 -- 68.5 0.0
08/16/2020 12:00 224.17 0.00 61.1 -- 67.4 0.0
08/16/2020 11:00 224.18 0.00 61.0 -- 65.7 0.0
08/16/2020 10:00 224.17 0.00 61.3 -- 64.8 0.0
08/16/2020 09:00 224.18 0.00 60.6 -- 64.2 0.0
08/16/2020 08:00 224.18 0.00 60.8 -- 63.0 0.0
08/16/2020 07:00 224.18 0.00 61.1 -- 59.7 0.0
08/16/2020 06:00 224.18 0.00 60.8 -- 60.4 0.0
08/16/2020 05:00 224.18 0.00 61.1 -- 56.9 0.0
08/16/2020 04:00 224.18 0.00 60.8 -- 56.3 0.0
08/16/2020 03:00 224.18 0.00 61.1 -- 56.6 0.0
08/16/2020 02:00 224.18 0.00 60.8 -- 57.5 0.0
08/16/2020 01:00 224.18 0.00 61.2 -- 58.5 0.0
08/16/2020 00:00 224.18 0.00 61.1 0.00 58.9 0.0
08/15/2020 23:00 224.18 0.00 60.8 -- 60.4 0.0
08/15/2020 22:00 224.18 0.00 60.9 -- 62.1 0.0
08/15/2020 21:00 224.18 0.00 60.5 -- 65.7 0.0
08/15/2020 20:00 224.18 0.00 61.3 -- 69.4 0.0
08/15/2020 19:00 224.18 0.00 60.5 -- 73.1 0.0
08/15/2020 18:00 224.19 0.00 60.8 -- 74.6 0.0
08/15/2020 17:00 224.18 0.00 60.7 -- 73.2 0.0
08/15/2020 16:00 224.18 0.00 61.3 -- 71.7 0.0
08/15/2020 15:00 224.18 0.00 60.5 -- 70.4 0.0
08/15/2020 14:00 224.18 0.00 61.1 -- 69.7 0.0
08/15/2020 13:00 224.18 0.00 60.5 -- 67.3 0.0
08/15/2020 12:00 224.20 0.00 61.6 -- 66.8 0.0
08/15/2020 11:00 224.18 0.00 60.2 -- 67.3 0.0
08/15/2020 10:00 224.19 0.00 60.8 -- 68.0 0.0
08/15/2020 09:00 224.20 0.00 60.8 -- 68.3 0.0
08/15/2020 08:00 224.18 0.00 61.3 -- 66.7 0.0
08/15/2020 07:00 224.19 0.00 60.7 -- 66.3 0.0
08/15/2020 06:00 224.19 0.00 60.9 -- 65.0 0.0
08/15/2020 05:00 224.20 0.00 60.8 -- 64.4 0.0
08/15/2020 04:00 224.19 0.00 60.8 -- 60.2 0.0
08/15/2020 03:00 224.19 0.00 61.1 -- 62.0 0.0
08/15/2020 02:00 224.19 0.00 61.0 -- 65.2 0.0
08/15/2020 01:00 224.20 0.00 60.7 -- 63.0 0.0
08/15/2020 00:00 224.19 0.00 60.8 0.00 63.8 0.0
08/14/2020 23:00 224.19 0.00 61.0 -- 65.1 0.0
08/14/2020 22:00 224.19 0.00 60.5 -- 67.7 0.0
08/14/2020 21:00 224.20 0.00 60.7 -- 72.2 0.0
08/14/2020 20:00 224.20 0.00 61.2 -- 79.7 0.0
08/14/2020 19:00 224.19 0.00 61.2 -- 83.0 0.0
08/14/2020 18:00 224.20 0.00 60.9 -- 86.1 0.0
08/14/2020 17:00 224.20 0.00 60.4 -- 85.2 0.0
08/14/2020 16:00 224.20 0.00 60.7 -- 84.4 0.0
08/14/2020 15:00 224.20 0.00 60.5 -- 83.1 0.0
08/14/2020 14:00 224.20 0.00 60.7 -- 83.0 0.0
08/14/2020 13:00 224.20 0.00 60.5 -- 81.6 0.0
08/14/2020 12:00 224.20 0.00 60.1 -- 80.2 0.0
08/14/2020 11:00 224.20 0.00 60.5 -- 78.8 0.0
08/14/2020 10:00 224.21 0.00 60.9 -- 76.2 0.0
08/14/2020 09:00 224.21 0.00 60.2 -- 67.8 0.0
08/14/2020 08:00 224.21 0.00 60.7 -- 61.9 0.0
08/14/2020 07:00 224.21 0.00 60.6 -- 60.5 0.0
08/14/2020 06:00 224.21 0.00 60.2 -- 61.1 0.0
08/14/2020 05:00 224.21 0.00 61.0 -- 61.5 0.0
08/14/2020 04:00 224.21 0.00 60.3 -- 62.2 0.0
08/14/2020 03:00 224.21 0.00 60.5 -- 63.4 0.0
08/14/2020 02:00 224.21 0.00 60.5 -- 63.5 0.0
08/14/2020 01:00 224.21 0.00 60.7 -- 64.3 0.0
08/14/2020 00:00 224.21 0.00 60.0 0.00 65.4 0.0
08/13/2020 23:00 224.21 0.00 60.6 -- 67.5 0.0
08/13/2020 22:00 224.21 0.00 60.5 -- 70.3 0.0
08/13/2020 21:00 224.21 0.00 60.6 -- 76.1 0.0
08/13/2020 20:00 224.21 0.00 60.6 -- 79.0 0.0
08/13/2020 19:00 224.22 0.00 60.8 -- 82.2 0.0
08/13/2020 18:00 224.22 0.00 60.5 -- 83.4 0.0
08/13/2020 17:00 224.22 0.00 60.7 -- 86.3 0.0
08/13/2020 16:00 224.21 0.00 60.3 -- 85.6 0.0
08/13/2020 15:00 224.22 0.00 59.8 -- 86.6 0.0
08/13/2020 14:00 224.22 0.00 60.7 -- 86.0 0.0
08/13/2020 13:00 224.22 0.00 60.5 -- 85.2 0.0
08/13/2020 12:00 224.22 0.00 59.9 -- 83.1 0.0
08/13/2020 11:00 224.23 0.00 61.1 -- 80.2 0.0
08/13/2020 10:00 224.22 0.00 60.3 -- 79.2 0.0
08/13/2020 09:00 224.22 0.00 60.1 -- 68.7 0.0
08/13/2020 08:00 224.23 0.00 60.3 -- 63.1 0.0
08/13/2020 07:00 224.23 0.00 60.3 -- 61.3 0.0
08/13/2020 06:00 224.22 0.00 60.7 -- 62.0 0.0
08/13/2020 05:00 224.22 0.00 60.4 -- 63.0 0.0
08/13/2020 04:00 224.22 0.00 60.4 -- 64.2 0.0
08/13/2020 03:00 224.23 0.00 60.8 -- 66.1 0.0
08/13/2020 02:00 224.23 0.00 60.2 -- 67.6 0.0
08/13/2020 01:00 224.23 0.00 60.0 -- 69.0 0.0
08/13/2020 00:00 224.23 0.00 60.6 0.00 70.3 0.0
08/12/2020 23:00 224.23 0.00 60.4 -- 72.4 0.0
08/12/2020 22:00 224.23 0.00 60.5 -- 75.2 0.0
08/12/2020 21:00 224.23 0.00 60.3 -- 77.9 0.0
08/12/2020 20:00 224.23 0.00 60.1 -- 86.4 0.0
08/12/2020 19:00 224.23 0.00 60.8 -- 88.7 0.0
08/12/2020 18:00 224.24 0.00 61.3 -- 91.9 0.0
08/12/2020 17:00 224.23 0.00 58.7 -- 90.4 0.0
08/12/2020 16:00 224.24 0.00 61.0 -- 89.7 0.0
08/12/2020 15:00 224.24 0.00 59.0 -- 91.7 0.0
08/12/2020 14:00 224.23 0.00 60.3 -- 88.9 0.0
08/12/2020 13:00 224.23 0.00 61.2 -- 88.3 0.0
08/12/2020 12:00 224.24 0.00 60.0 -- 84.6 0.0
08/12/2020 11:00 224.24 0.00 60.3 -- 81.6 0.0
08/12/2020 10:00 224.23 0.00 60.3 -- 79.9 0.0
08/12/2020 09:00 224.24 0.00 59.9 -- 76.7 0.0
08/12/2020 08:00 224.24 0.00 59.9 -- 73.6 0.0
08/12/2020 07:00 224.24 0.00 60.9 -- 72.9 0.0
08/12/2020 06:00 224.24 0.00 60.4 -- 73.5 0.0
08/12/2020 05:00 224.24 0.00 58.8 -- 74.6 0.0
08/12/2020 04:00 224.24 0.00 61.2 -- 74.6 0.0
08/12/2020 03:00 224.24 0.00 59.4 -- 74.2 0.0
08/12/2020 02:00 224.24 0.00 60.1 -- 73.2 0.0
08/12/2020 01:00 224.25 0.00 60.2 -- 75.7 0.0
08/12/2020 00:00 224.24 0.00 59.9 0.00 77.5 0.0
08/11/2020 23:00 224.25 0.00 60.0 -- 76.5 0.0
08/11/2020 22:00 224.24 0.00 59.8 -- 76.0 0.0
08/11/2020 21:00 224.24 0.00 59.6 -- 78.8 0.0
08/11/2020 20:00 224.25 0.00 59.4 -- 83.9 0.0
08/11/2020 19:00 224.24 0.00 60.2 -- 90.5 0.0
08/11/2020 18:00 224.26 0.00 59.9 -- 92.7 0.0
08/11/2020 17:00 224.26 0.00 59.8 -- 94.1 0.0
08/11/2020 16:00 224.25 0.00 59.3 -- 91.0 0.0
08/11/2020 15:00 224.25 0.00 60.1 -- 93.0 0.0
08/11/2020 14:00 224.24 0.00 60.3 -- 92.5 0.0
08/11/2020 13:00 224.25 0.00 59.1 -- 93.4 0.0
08/11/2020 12:00 224.25 0.00 60.1 -- 89.2 0.0
08/11/2020 11:00 224.25 0.00 60.0 -- 84.6 0.0
08/11/2020 10:00 224.25 0.00 59.7 -- 80.5 0.0
08/11/2020 09:00 224.25 0.00 59.8 -- 71.9 0.0
08/11/2020 08:00 224.25 0.00 59.8 -- 67.9 0.0
08/11/2020 07:00 224.25 0.00 60.0 -- 66.9 0.0
08/11/2020 06:00 224.26 0.00 59.6 -- 66.8 0.0
08/11/2020 05:00 224.25 0.00 59.8 -- 67.6 0.0
08/11/2020 04:00 224.25 0.00 59.7 -- 68.2 0.0
08/11/2020 03:00 224.26 0.00 60.1 -- 69.2 0.0
08/11/2020 02:00 224.26 0.00 60.0 -- 70.3 0.0
08/11/2020 01:00 224.25 0.00 58.9 -- 70.8 0.0
08/11/2020 00:00 224.26 0.00 60.0 0.00 71.8 0.0
08/10/2020 23:00 224.26 0.00 60.2 -- 72.9 0.0
08/10/2020 22:00 224.26 0.00 58.9 -- 74.5 0.0
08/10/2020 21:00 224.26 0.00 59.7 -- 78.1 0.0
08/10/2020 20:00 224.26 0.00 60.1 -- 85.2 0.0
08/10/2020 19:00 224.26 0.00 59.3 -- 91.5 0.0
08/10/2020 18:00 224.25 0.00 59.5 -- 92.0 0.0
08/10/2020 17:00 224.27 0.00 59.7 -- 93.2 0.0
08/10/2020 16:00 224.26 0.00 59.5 -- 90.4 0.0
08/10/2020 15:00 224.27 0.00 59.1 -- 90.1 0.0
08/10/2020 14:00 224.26 0.00 60.0 -- 88.3 0.0
08/10/2020 13:00 224.26 0.00 59.6 -- 85.1 0.0
08/10/2020 12:00 224.26 0.00 59.5 -- 85.1 0.0
08/10/2020 11:00 224.26 0.00 59.5 -- 83.5 0.0
08/10/2020 10:00 224.26 0.00 59.3 -- 78.7 0.0
08/10/2020 09:00 224.26 0.00 59.9 -- 72.8 0.0
08/10/2020 08:00 224.27 0.00 60.0 -- 68.1 0.0
08/10/2020 07:00 224.26 0.00 58.7 -- 65.2 0.0
08/10/2020 06:00 224.26 0.00 59.6 -- 65.8 0.0
08/10/2020 05:00 224.27 0.00 59.9 -- 66.9 0.0
08/10/2020 04:00 224.26 0.00 59.2 -- 67.6 0.0
08/10/2020 03:00 224.27 0.00 59.6 -- 69.3 0.0
08/10/2020 02:00 224.26 0.00 59.5 -- 73.2 0.0
08/10/2020 01:00 224.27 0.00 59.7 -- 70.8 0.0
08/10/2020 00:00 224.26 0.00 59.3 0.00 72.0 0.0
08/09/2020 23:00 224.27 0.00 59.7 -- 73.1 0.0
08/09/2020 22:00 224.27 0.00 59.2 -- 74.5 0.0
08/09/2020 21:00 224.27 0.00 59.1 -- 77.8 0.0
08/09/2020 20:00 224.27 0.00 59.5 -- 84.7 0.0
08/09/2020 19:00 224.27 0.00 60.3 -- 87.8 0.0
08/09/2020 18:00 224.26 0.00 59.2 -- 88.7 0.0
08/09/2020 17:00 224.26 0.00 59.7 -- 88.0 0.0
08/09/2020 16:00 224.27 0.00 59.5 -- 89.6 0.0
08/09/2020 15:00 224.28 0.00 58.8 -- 89.8 0.0
08/09/2020 14:00 224.28 0.00 60.0 -- 87.1 0.0
08/09/2020 13:00 224.28 0.00 59.1 -- 87.9 0.0
08/09/2020 12:00 224.27 0.00 59.2 -- 83.5 0.0
08/09/2020 11:00 224.27 0.00 59.3 -- 80.8 0.0
08/09/2020 10:00 224.28 0.00 59.7 -- 76.9 0.0
08/09/2020 09:00 224.27 0.00 59.4 -- 69.0 0.0
08/09/2020 08:00 224.28 0.00 59.2 -- 61.9 0.0
08/09/2020 07:00 224.28 0.00 59.1 -- 60.9 0.0
08/09/2020 06:00 224.28 0.00 59.6 -- 61.3 0.0
08/09/2020 05:00 224.27 0.00 59.4 -- 61.7 0.0
08/09/2020 04:00 224.27 0.00 59.2 -- 62.1 0.0
08/09/2020 03:00 224.28 0.00 59.6 -- 63.4 0.0
08/09/2020 02:00 224.28 0.00 59.4 -- 63.0 0.0
08/09/2020 01:00 224.28 0.00 59.2 -- 63.9 0.0
08/09/2020 00:00 224.28 0.00 59.4 0.00 66.2 0.0
08/08/2020 23:00 224.28 0.00 59.0 -- 67.4 0.0
08/08/2020 22:00 224.28 0.00 60.0 -- 67.9 0.0
08/08/2020 21:00 224.28 0.00 59.7 -- 72.5 0.0
08/08/2020 20:00 224.28 0.00 58.5 -- 78.0 0.0
08/08/2020 19:00 224.28 0.00 59.7 -- 84.1 0.0
08/08/2020 18:00 224.28 0.00 59.6 -- 84.3 0.0
08/08/2020 17:00 224.28 0.00 59.0 -- 85.1 0.0
08/08/2020 16:00 224.28 0.00 59.7 -- 82.6 0.0
08/08/2020 15:00 224.28 0.00 59.5 -- 81.2 0.0
08/08/2020 14:00 224.28 0.00 59.3 -- 76.2 0.0
08/08/2020 13:00 224.28 0.00 59.0 -- 73.8 0.0
08/08/2020 12:00 224.29 0.05 59.2 -- 67.5 0.0
08/08/2020 11:00 224.28 0.02 59.6 -- 68.1 0.0
08/08/2020 10:00 224.28 0.00 58.8 -- 70.8 0.0
08/08/2020 09:00 224.28 0.00 59.3 -- 67.3 0.0
08/08/2020 08:00 224.28 0.00 59.1 -- 64.0 0.0
08/08/2020 07:00 224.28 0.00 59.1 -- 61.0 0.0
08/08/2020 06:00 224.28 0.00 59.2 -- 61.1 0.0
08/08/2020 05:00 224.28 0.00 59.3 -- 62.0 0.0
08/08/2020 04:00 224.28 0.00 59.4 -- 62.2 0.0
08/08/2020 03:00 224.28 0.00 58.9 -- 63.0 0.0
08/08/2020 02:00 224.28 0.00 58.8 -- 63.6 0.0
08/08/2020 01:00 224.28 0.00 59.4 -- 64.0 0.0
08/08/2020 00:00 224.29 0.00 59.2 0.07 65.9 0.0
08/07/2020 23:00 224.28 0.00 59.3 -- 66.9 0.0
08/07/2020 22:00 224.29 0.00 59.3 -- 68.3 0.0
08/07/2020 21:00 224.29 0.00 59.1 -- 72.8 0.0
08/07/2020 20:00 224.29 0.00 59.5 -- 77.7 0.0
08/07/2020 19:00 224.29 0.00 59.1 -- 78.7 0.0
08/07/2020 18:00 224.30 0.00 58.3 -- 80.4 0.0
08/07/2020 17:00 224.29 0.00 59.3 -- 79.6 0.0
08/07/2020 16:00 224.30 0.00 59.2 -- 79.4 0.0
08/07/2020 15:00 224.30 0.00 59.1 -- 82.5 0.0
08/07/2020 14:00 224.29 0.00 59.0 -- 81.6 0.0
08/07/2020 13:00 224.29 0.00 59.3 -- 78.8 0.0
08/07/2020 12:00 224.29 0.00 59.4 -- 77.5 0.0
08/07/2020 11:00 224.30 0.00 59.0 -- 73.1 0.0
08/07/2020 10:00 224.29 0.00 58.9 -- 70.9 0.0
08/07/2020 09:00 224.30 0.00 59.5 -- 66.3 0.0
08/07/2020 08:00 224.30 0.00 58.9 -- 58.0 0.0
08/07/2020 07:00 224.30 0.00 59.1 -- 55.0 0.0
08/07/2020 06:00 224.30 0.00 59.0 -- 54.6 0.0
08/07/2020 05:00 224.30 0.00 59.0 -- 54.7 0.0
08/07/2020 04:00 224.30 0.00 59.0 -- 55.2 0.0
08/07/2020 03:00 224.30 0.00 59.1 -- 56.0 0.0
08/07/2020 02:00 224.30 0.00 58.8 -- 56.5 0.0
08/07/2020 01:00 224.30 0.00 59.1 -- 57.5 0.0
08/07/2020 00:00 224.30 0.00 58.9 0.00 59.0 0.0
08/06/2020 23:00 224.30 0.00 59.2 -- 60.5 0.0
08/06/2020 22:00 224.30 0.00 58.8 -- 63.2 0.0
08/06/2020 21:00 224.30 0.00 59.5 -- 67.7 0.0
08/06/2020 20:00 224.31 0.00 58.9 -- 79.7 0.0
08/06/2020 19:00 224.31 0.00 58.8 -- 80.6 0.0
08/06/2020 18:00 224.30 0.00 59.6 -- 83.2 0.0
08/06/2020 17:00 224.30 0.00 58.7 -- 80.7 0.0
08/06/2020 16:00 224.31 0.00 58.9 -- 80.7 0.0
08/06/2020 15:00 224.31 0.00 59.6 -- 79.0 0.0
08/06/2020 14:00 224.31 0.00 58.9 -- 78.8 0.0
08/06/2020 13:00 224.30 0.00 58.5 -- 77.6 0.0
08/06/2020 12:00 224.32 0.00 59.4 -- 76.2 0.0
08/06/2020 11:00 224.32 0.00 58.6 -- 73.8 0.0
08/06/2020 10:00 224.31 0.00 59.1 -- 72.3 0.0
08/06/2020 09:00 224.32 0.00 58.7 -- 65.2 0.0
08/06/2020 08:00 224.32 0.00 59.0 -- 59.5 0.0
08/06/2020 07:00 224.32 0.00 58.7 -- 58.0 0.0
08/06/2020 06:00 224.32 0.00 59.0 -- 59.2 0.0
08/06/2020 05:00 224.32 0.00 58.7 -- 60.6 0.0
08/06/2020 04:00 224.32 0.00 58.8 -- 61.2 0.0
08/06/2020 03:00 224.32 0.00 59.1 -- 66.3 0.0
08/06/2020 02:00 224.32 0.00 58.6 -- 66.3 0.0
08/06/2020 01:00 224.32 0.00 58.6 -- 64.5 0.0
08/06/2020 00:00 224.32 0.00 59.0 0.00 69.7 0.0
08/05/2020 23:00 224.32 0.00 59.3 -- 69.5 0.0
08/05/2020 22:00 224.32 0.00 58.2 -- 75.1 0.0
08/05/2020 21:00 224.32 0.00 59.0 -- 78.0 0.0
08/05/2020 20:00 224.32 0.00 59.2 -- 82.3 0.0
08/05/2020 19:00 224.33 0.00 58.6 -- 84.6 0.0
08/05/2020 18:00 224.33 0.00 58.9 -- 87.2 0.0
08/05/2020 17:00 224.33 0.00 59.9 -- 86.0 0.0
08/05/2020 16:00 224.32 0.00 58.9 -- 86.6 0.0
08/05/2020 15:00 224.34 0.00 58.9 -- 86.9 0.0
08/05/2020 14:00 224.32 0.00 59.3 -- 85.3 0.0
08/05/2020 13:00 224.32 0.00 59.0 -- 84.4 0.0
08/05/2020 12:00 224.33 0.00 58.1 -- 81.1 0.0
08/05/2020 11:00 224.34 0.00 59.8 -- 78.8 0.0
08/05/2020 10:00 224.33 0.00 58.2 -- 75.4 0.0
08/05/2020 09:00 224.33 0.00 58.6 -- 71.3 0.0
08/05/2020 08:00 224.33 0.00 59.1 -- 65.0 0.0
08/05/2020 07:00 224.34 0.00 58.9 -- 64.3 0.0
08/05/2020 06:00 224.33 0.00 58.4 -- 65.2 0.0
08/05/2020 05:00 224.34 0.00 58.2 -- 66.8 0.0
08/05/2020 04:00 224.34 0.00 59.1 -- 68.3 0.0
08/05/2020 03:00 224.33 0.00 58.1 -- 69.6 0.0
08/05/2020 02:00 224.33 0.00 58.7 -- 70.8 0.0
08/05/2020 01:00 224.35 0.00 59.1 -- 71.4 0.0
08/05/2020 00:00 224.31 0.00 58.6 0.00 73.8 0.0
08/04/2020 23:00 224.36 0.00 58.8 -- 74.9 0.0
08/04/2020 22:00 224.36 0.00 59.0 -- 73.1 0.0
08/04/2020 21:00 224.36 0.00 58.3 -- 72.8 0.0
08/04/2020 20:00 224.33 0.19 58.8 -- 73.1 0.0
08/04/2020 19:00 224.33 0.02 58.8 -- 73.7 0.0
08/04/2020 18:00 224.34 0.00 58.9 -- 75.2 0.0
08/04/2020 17:00 224.32 0.00 58.7 -- 76.1 0.0
08/04/2020 16:00 224.32 0.00 59.1 -- 74.6 0.0
08/04/2020 15:00 224.33 0.00 58.4 -- 74.7 0.0
08/04/2020 14:00 224.33 0.00 58.7 -- 76.0 0.0
08/04/2020 13:00 224.33 0.00 58.6 -- 76.3 0.0
08/04/2020 12:00 224.33 0.00 58.7 -- 75.6 0.0
08/04/2020 11:00 224.33 0.00 58.4 -- 74.2 0.0
08/04/2020 10:00 224.34 0.00 59.0 -- 72.8 0.0
08/04/2020 09:00 224.33 0.00 58.7 -- 70.4 0.0
08/04/2020 08:00 224.33 0.00 58.9 -- 69.1 0.0
08/04/2020 07:00 224.33 0.00 58.6 -- 67.5 0.0
08/04/2020 06:00 224.34 0.00 58.4 -- 68.0 0.0
08/04/2020 05:00 224.34 0.00 58.7 -- 69.3 0.0
08/04/2020 04:00 224.33 0.00 58.4 -- 67.0 0.0
08/04/2020 03:00 224.34 0.00 58.8 -- 66.9 0.0
08/04/2020 02:00 224.34 0.00 58.6 -- 66.8 0.0
08/04/2020 01:00 224.34 0.00 58.9 -- 67.9 0.0
08/04/2020 00:00 224.33 0.00 58.1 0.21 69.3 0.0
08/03/2020 23:00 224.34 0.00 58.7 -- 70.9 0.0
08/03/2020 22:00 224.33 0.00 58.6 -- 75.6 0.0
08/03/2020 21:00 224.34 0.00 58.6 -- 79.2 0.0
08/03/2020 20:00 224.34 0.00 57.9 -- 83.8 0.0
08/03/2020 19:00 224.33 0.00 59.1 -- 84.9 0.0
08/03/2020 18:00 224.35 0.00 58.8 -- 86.0 0.0
08/03/2020 17:00 224.32 0.00 58.1 -- 85.8 0.0
08/03/2020 16:00 224.33 0.00 58.4 -- 86.8 0.0
08/03/2020 15:00 224.36 0.00 58.8 -- 85.7 0.0
08/03/2020 14:00 224.35 0.00 58.6 -- 87.6 0.0
08/03/2020 13:00 224.37 0.00 58.1 -- 83.9 0.0
08/03/2020 12:00 224.34 0.00 57.9 -- 83.3 0.0
08/03/2020 11:00 224.36 0.00 58.6 -- 81.9 0.0
08/03/2020 10:00 224.35 0.00 58.9 -- 80.3 0.0
08/03/2020 09:00 224.35 0.00 58.6 -- 78.4 0.0
08/03/2020 08:00 224.35 0.00 58.1 -- 74.0 0.0
08/03/2020 07:00 224.36 0.00 58.4 -- 71.3 0.0
08/03/2020 06:00 224.36 0.00 58.7 -- 71.5 0.0
08/03/2020 05:00 224.36 0.00 58.3 -- 72.5 0.0
08/03/2020 04:00 224.36 0.00 58.2 -- 74.1 0.0
08/03/2020 03:00 224.36 0.00 58.7 -- 74.3 0.0
08/03/2020 02:00 224.35 0.00 58.6 -- 74.2 0.0
08/03/2020 01:00 224.35 0.00 58.7 -- 74.1 0.0
08/03/2020 00:00 224.35 0.00 58.7 0.00 74.3 0.0
08/02/2020 23:00 224.36 0.00 57.7 -- 74.7 0.0
08/02/2020 22:00 224.35 0.00 59.3 -- 75.1 0.0
08/02/2020 21:00 224.36 0.00 58.8 -- 75.8 0.0
08/02/2020 20:00 224.36 0.00 58.1 -- 77.1 0.0
08/02/2020 19:00 224.36 0.00 58.6 -- 79.4 0.0
08/02/2020 18:00 224.36 0.00 58.5 -- 80.0 0.0
08/02/2020 17:00 224.37 0.00 58.4 -- 81.4 0.0
08/02/2020 16:00 224.37 0.00 58.2 -- 82.3 0.0
08/02/2020 15:00 224.37 0.00 58.5 -- 82.3 0.0
08/02/2020 14:00 224.36 0.00 58.6 -- 81.8 0.0
08/02/2020 13:00 224.36 0.00 58.4 -- 82.5 0.0
08/02/2020 12:00 224.37 0.00 58.3 -- 78.6 0.0
08/02/2020 11:00 224.36 0.00 58.8 -- 78.4 0.0
08/02/2020 10:00 224.37 0.00 58.1 -- 73.5 0.0
08/02/2020 09:00 224.37 0.00 58.7 -- 71.9 0.0
08/02/2020 08:00 224.37 0.00 58.5 -- 65.5 0.0
08/02/2020 07:00 224.37 0.00 58.3 -- 62.9 0.0
08/02/2020 06:00 224.37 0.00 58.4 -- 62.7 0.0
08/02/2020 05:00 224.37 0.00 58.4 -- 62.5 0.0
08/02/2020 04:00 224.37 0.00 58.3 -- 62.4 0.0
08/02/2020 03:00 224.37 0.00 58.8 -- 63.0 0.0
08/02/2020 02:00 224.37 0.00 58.2 -- 63.6 0.0
08/02/2020 01:00 224.37 0.00 58.2 -- 64.7 0.0
08/02/2020 00:00 224.37 0.00 58.8 0.00 66.0 0.0
08/01/2020 23:00 224.37 0.00 58.3 -- 67.6 0.0
08/01/2020 22:00 224.37 0.00 58.5 -- 70.1 0.0
08/01/2020 21:00 224.38 0.00 58.3 -- 75.1 0.0
08/01/2020 20:00 224.37 0.00 58.1 -- 80.3 0.0
08/01/2020 19:00 224.38 0.00 58.3 -- 83.3 0.0
08/01/2020 18:00 224.38 0.00 58.0 -- 85.2 0.0
08/01/2020 17:00 224.38 0.00 58.7 -- 85.5 0.0
08/01/2020 16:00 224.38 0.00 58.1 -- 84.6 0.0
08/01/2020 15:00 224.38 0.00 58.5 -- 86.0 0.0
08/01/2020 14:00 224.38 0.00 58.5 -- 82.5 0.0
08/01/2020 13:00 224.38 0.00 58.0 -- 81.4 0.0
08/01/2020 12:00 224.38 0.00 58.7 -- 81.3 0.0
08/01/2020 11:00 224.38 0.00 58.2 -- 77.8 0.0
08/01/2020 10:00 224.38 0.00 58.1 -- 76.4 0.0
08/01/2020 09:00 224.38 0.00 58.4 -- 69.0 0.0
08/01/2020 08:00 224.38 0.00 58.2 -- 62.2 0.0
08/01/2020 07:00 224.38 0.00 58.2 -- 60.9 0.0
08/01/2020 06:00 224.39 0.00 58.1 -- 61.2 0.0
08/01/2020 05:00 224.38 0.00 58.5 -- 61.7 0.0
08/01/2020 04:00 224.38 0.00 58.1 -- 62.9 0.0
08/01/2020 03:00 224.39 0.00 58.4 -- 64.5 0.0
08/01/2020 02:00 224.39 0.00 58.0 -- 64.5 0.0
08/01/2020 01:00 224.38 0.00 58.2 -- 64.3 0.0
08/01/2020 00:00 224.39 0.00 58.4 0.00 65.7 0.0
07/31/2020 23:00 224.39 0.00 58.2 -- 67.1 0.0
07/31/2020 22:00 224.39 0.00 58.0 -- 69.5 0.0
07/31/2020 21:00 224.39 0.00 58.2 -- 75.3 0.0
07/31/2020 20:00 224.39 0.00 58.0 -- 81.4 0.0
07/31/2020 19:00 224.39 0.00 58.6 -- 84.7 0.0
07/31/2020 18:00 224.39 0.00 58.1 -- 84.3 0.0
07/31/2020 17:00 224.40 0.00 58.2 -- 84.3 0.0
07/31/2020 16:00 224.39 0.00 58.2 -- 81.4 0.0
07/31/2020 15:00 224.40 0.00 58.0 -- 85.8 0.0
07/31/2020 14:00 224.40 0.00 58.4 -- 82.0 0.0
07/31/2020 13:00 224.39 0.00 58.4 -- 80.3 0.0
07/31/2020 12:00 224.40 0.00 57.6 -- 80.5 0.0
07/31/2020 11:00 224.40 0.00 58.4 -- 77.8 0.0
07/31/2020 10:00 224.40 0.00 58.2 -- 75.2 0.0
07/31/2020 09:00 224.40 0.00 58.0 -- 67.0 0.0
07/31/2020 08:00 224.40 0.00 58.2 -- 60.1 0.0
07/31/2020 07:00 224.40 0.00 58.2 -- 58.9 0.0
07/31/2020 06:00 224.40 0.00 58.3 -- 59.5 0.0
07/31/2020 05:00 224.40 0.00 57.9 -- 60.5 0.0
07/31/2020 04:00 224.40 0.00 58.2 -- 62.1 0.0
07/31/2020 03:00 224.40 0.00 58.3 -- 65.7 0.0
07/31/2020 02:00 224.41 0.00 58.0 -- 68.4 0.0
07/31/2020 01:00 224.40 0.00 58.4 -- 67.0 0.0
07/31/2020 00:00 224.40 0.00 58.2 0.00 71.8 0.0
07/30/2020 23:00 224.41 0.00 57.9 -- 68.1 0.0
07/30/2020 22:00 224.41 0.00 58.5 -- 70.2 0.0
07/30/2020 21:00 224.40 0.00 57.8 -- 73.4 0.0
07/30/2020 20:00 224.41 0.00 58.2 -- 81.6 0.0
07/30/2020 19:00 224.40 0.00 58.5 -- 80.7 0.0
07/30/2020 18:00 224.42 0.00 58.3 -- 87.4 0.0
07/30/2020 17:00 224.42 0.00 57.9 -- 88.1 0.0
07/30/2020 16:00 -- -- -- -- 87.9 0.0
07/30/2020 15:00 -- -- -- -- 87.2 0.0
07/30/2020 14:00 -- -- -- -- 85.5 0.0
07/30/2020 13:00 -- -- -- -- 85.3 0.0
07/30/2020 12:00 -- -- -- -- 83.2 0.0
07/30/2020 11:00 -- -- -- -- 75.0 0.0
07/30/2020 10:00 -- -- -- -- 70.3 0.0
07/30/2020 09:00 -- -- -- -- 68.9 0.0
07/30/2020 08:00 -- -- -- -- 67.2 0.0
07/30/2020 07:00 -- -- -- -- 65.7 0.0
07/30/2020 06:00 -- -- -- -- 66.3 0.0
07/30/2020 05:00 -- -- -- -- 67.6 0.0
07/30/2020 04:00 -- -- -- -- 68.0 0.0
07/30/2020 03:00 -- -- -- -- 70.1 0.0
07/30/2020 02:00 -- -- -- -- 73.3 0.0
07/30/2020 01:00 -- -- -- -- 73.0 0.0
07/30/2020 00:00 -- -- -- 0.06 72.6 0.0